Time,TemperatureF,DewpointF,PressureIn,WindDirection,WindDirectionDegrees,WindSpeedMPH,WindSpeedGustMPH,Humidity,HourlyPrecipIn,Conditions,Clouds,dailyrainin,SoftwareType,DateUTC
2013-04-07 00:00:00,64.0,42.2,29.91,South,186,4.0,21.0,45,0.00,,,0.04,Wunderground v.1.15,2013-04-07 04:00:00,
2013-04-07 00:01:00,64.1,42.3,29.91,SSW,200,5.0,9.0,45,0.00,,,0.04,Wunderground v.1.15,2013-04-07 04:01:00,
2013-04-07 00:05:00,64.1,42.3,29.91,South,177,5.0,18.0,45,0.00,,,0.00,Wunderground v.1.15,2013-04-07 04:05:00,
2013-04-07 00:07:00,64.1,42.3,29.91,SSW,200,16.0,18.0,45,0.00,,,0.00,Wunderground v.1.15,2013-04-07 04:07:00,
2013-04-07 00:10:00,64.2,42.4,29.91,WSW,248,5.0,9.0,45,0.00,,,0.00,Wunderground v.1.15,2013-04-07 04:10:00,
2013-04-07 00:11:00,64.2,42.4,29.91,SSW,211,10.0,10.0,45,0.00,,,0.00,Wunderground v.1.15,2013-04-07 04:11:00,
2013-04-07 00:16:00,64.3,42.5,29.91,SW,228,5.0,19.0,45,0.00,,,0.00,Wunderground v.1.15,2013-04-07 04:16:00,
2013-04-07 00:17:00,64.3,42.5,29.91,WSW,244,4.0,19.0,45,0.00,,,0.00,Wunderground v.1.15,2013-04-07 04:17:00,
2013-04-07 00:19:00,64.4,42.6,29.92,SSW,205,6.0,19.0,45,0.00,,,0.00,Wunderground v.1.15,2013-04-07 04:19:00,
2013-04-07 00:25:00,64.3,42.5,29.92,South,183,15.0,15.0,45,0.00,,,0.00,Wunderground v.1.15,2013-04-07 04:25:00,
2013-04-07 00:27:00,64.4,42.6,29.92,SSW,211,6.0,15.0,45,0.00,,,0.00,Wunderground v.1.15,2013-04-07 04:27:00,
2013-04-07 00:29:00,64.5,42.1,29.92,SW,228,14.0,15.0,44,0.00,,,0.00,Wunderground v.1.15,2013-04-07 04:29:00,
2013-04-07 00:31:00,64.5,42.7,29.92,WSW,239,7.0,10.0,45,0.00,,,0.00,Wunderground v.1.15,2013-04-07 04:31:00,
2013-04-07 00:33:00,64.5,42.1,29.92,SSE,161,2.0,10.0,44,0.00,,,0.00,Wunderground v.1.15,2013-04-07 04:33:00,
2013-04-07 00:36:00,64.6,42.2,29.92,SW,232,11.0,14.0,44,0.00,,,0.00,Wunderground v.1.15,2013-04-07 04:36:00,
2013-04-07 00:39:00,64.6,42.2,29.92,South,185,6.0,14.0,44,0.00,,,0.00,Wunderground v.1.15,2013-04-07 04:39:00,
2013-04-07 00:41:00,64.5,42.1,29.92,WSW,243,8.0,9.0,44,0.00,,,0.00,Wunderground v.1.15,2013-04-07 04:41:00,
2013-04-07 00:45:00,64.5,42.1,29.93,WSW,258,12.0,12.0,44,0.00,,,0.00,Wunderground v.1.15,2013-04-07 04:45:00,
2013-04-07 00:47:00,64.5,42.1,29.92,SSW,212,6.0,19.0,44,0.00,,,0.00,Wunderground v.1.15,2013-04-07 04:47:00,
2013-04-07 00:49:00,64.4,42.6,29.92,SW,232,2.0,19.0,45,0.00,,,0.00,Wunderground v.1.15,2013-04-07 04:49:00,
2013-04-07 00:51:00,64.3,42.5,29.92,South,188,5.0,9.0,45,0.00,,,0.00,Wunderground v.1.15,2013-04-07 04:51:00,
2013-04-07 00:52:00,64.3,42.5,29.92,SSW,210,5.0,9.0,45,0.00,,,0.00,Wunderground v.1.15,2013-04-07 04:52:00,
2013-04-07 00:54:00,64.2,42.4,29.92,SW,229,13.0,13.0,45,0.00,,,0.00,Wunderground v.1.15,2013-04-07 04:54:00,
2013-04-07 00:57:00,64.1,42.3,29.92,SW,234,9.0,13.0,45,0.00,,,0.00,Wunderground v.1.15,2013-04-07 04:57:00,
2013-04-07 01:01:00,64.1,42.3,29.92,West,260,5.0,14.0,45,0.00,,,0.00,Wunderground v.1.15,2013-04-07 05:01:00,
2013-04-07 01:03:00,64.1,42.3,29.93,SW,232,11.0,14.0,45,0.00,,,0.00,Wunderground v.1.15,2013-04-07 05:03:00,
2013-04-07 01:07:00,64.0,42.8,29.92,SSW,205,6.0,14.0,46,0.00,,,0.00,Wunderground v.1.15,2013-04-07 05:07:00,
2013-04-07 01:09:00,64.0,42.2,29.92,WSW,243,16.0,16.0,45,0.00,,,0.00,Wunderground v.1.15,2013-04-07 05:09:00,
2013-04-07 01:12:00,64.0,42.8,29.92,SSW,213,9.0,9.0,46,0.00,,,0.00,Wunderground v.1.15,2013-04-07 05:12:00,
2013-04-07 01:15:00,64.0,42.8,29.92,SSW,200,5.0,9.0,46,0.00,,,0.00,Wunderground v.1.15,2013-04-07 05:15:00,
2013-04-07 01:19:00,64.0,42.8,29.92,SW,232,10.0,14.0,46,0.00,,,0.00,Wunderground v.1.15,2013-04-07 05:19:00,
2013-04-07 01:21:00,64.0,42.8,29.92,SW,223,10.0,10.0,46,0.00,,,0.00,Wunderground v.1.15,2013-04-07 05:21:00,
2013-04-07 01:23:00,64.0,42.8,29.92,WSW,241,4.0,10.0,46,0.00,,,0.00,Wunderground v.1.15,2013-04-07 05:23:00,
2013-04-07 01:24:00,64.0,42.8,29.92,South,188,12.0,12.0,46,0.00,,,0.00,Wunderground v.1.15,2013-04-07 05:24:00,
2013-04-07 01:29:00,63.9,42.7,29.92,WSW,238,6.0,12.0,46,0.00,,,0.00,Wunderground v.1.15,2013-04-07 05:29:00,
2013-04-07 01:32:00,64.0,42.8,29.92,WSW,243,10.0,12.0,46,0.00,,,0.00,Wunderground v.1.15,2013-04-07 05:32:00,
2013-04-07 01:34:00,64.0,42.8,29.92,SW,232,11.0,12.0,46,0.00,,,0.00,Wunderground v.1.15,2013-04-07 05:34:00,
2013-04-07 01:35:00,63.9,42.7,29.92,SW,228,14.0,14.0,46,0.00,,,0.00,Wunderground v.1.15,2013-04-07 05:35:00,
2013-04-07 01:37:00,64.0,42.8,29.92,SW,232,7.0,14.0,46,0.00,,,0.00,Wunderground v.1.15,2013-04-07 05:37:00,
2013-04-07 01:38:00,64.0,42.8,29.92,SSW,205,5.0,14.0,46,0.00,,,0.00,Wunderground v.1.15,2013-04-07 05:38:00,
2013-04-07 01:39:00,64.0,42.8,29.92,WNW,286,12.0,14.0,46,0.00,,,0.00,Wunderground v.1.15,2013-04-07 05:39:00,
2013-04-07 01:45:00,64.0,42.8,29.92,SW,232,14.0,16.0,46,0.00,,,0.00,Wunderground v.1.15,2013-04-07 05:45:00,
2013-04-07 01:46:00,64.0,42.8,29.92,WSW,241,12.0,16.0,46,0.00,,,0.00,Wunderground v.1.15,2013-04-07 05:46:00,
2013-04-07 01:47:00,64.0,42.8,29.92,WSW,240,6.0,16.0,46,0.00,,,0.00,Wunderground v.1.15,2013-04-07 05:47:00,
2013-04-07 01:51:00,64.1,42.9,29.92,SSW,205,5.0,9.0,46,0.00,,,0.00,Wunderground v.1.15,2013-04-07 05:51:00,
2013-04-07 01:54:00,64.1,42.9,29.92,SW,219,8.0,12.0,46,0.00,,,0.00,Wunderground v.1.15,2013-04-07 05:54:00,
2013-04-07 01:55:00,64.1,42.9,29.92,SW,228,15.0,15.0,46,0.00,,,0.00,Wunderground v.1.15,2013-04-07 05:55:00,
2013-04-07 01:58:00,64.1,42.9,29.92,WSW,240,6.0,15.0,46,0.00,,,0.00,Wunderground v.1.15,2013-04-07 05:58:00,
2013-04-07 02:02:00,64.1,42.9,29.92,SW,234,6.0,10.0,46,0.00,,,0.00,Wunderground v.1.15,2013-04-07 06:02:00,
2013-04-07 02:03:00,64.1,42.9,29.92,SW,236,5.0,10.0,46,0.00,,,0.00,Wunderground v.1.15,2013-04-07 06:03:00,
2013-04-07 02:07:00,64.0,42.8,29.92,WSW,251,6.0,15.0,46,0.00,,,0.00,Wunderground v.1.15,2013-04-07 06:07:00,
2013-04-07 02:08:00,63.9,42.7,29.92,West,261,9.0,15.0,46,0.00,,,0.00,Wunderground v.1.15,2013-04-07 06:08:00,
2013-04-07 02:12:00,63.8,42.6,29.92,SW,233,9.0,12.0,46,0.00,,,0.00,Wunderground v.1.15,2013-04-07 06:12:00,
2013-04-07 02:13:00,63.8,42.6,29.92,SW,219,4.0,15.0,46,0.00,,,0.00,Wunderground v.1.15,2013-04-07 06:13:00,
2013-04-07 02:17:00,63.6,42.4,29.92,SSW,205,5.0,15.0,46,0.00,,,0.00,Wunderground v.1.15,2013-04-07 06:17:00,
2013-04-07 02:19:00,63.6,42.4,29.92,SW,226,10.0,15.0,46,0.00,,,0.00,Wunderground v.1.15,2013-04-07 06:19:00,
2013-04-07 02:22:00,63.6,42.4,29.92,WSW,238,6.0,15.0,46,0.00,,,0.00,Wunderground v.1.15,2013-04-07 06:22:00,
2013-04-07 02:24:00,63.6,42.4,29.92,SW,234,8.0,15.0,46,0.00,,,0.00,Wunderground v.1.15,2013-04-07 06:24:00,
2013-04-07 02:28:00,63.4,42.2,29.92,SW,235,11.0,15.0,46,0.00,,,0.00,Wunderground v.1.15,2013-04-07 06:28:00,
2013-04-07 02:30:00,63.4,42.2,29.92,SW,234,4.0,15.0,46,0.00,,,0.00,Wunderground v.1.15,2013-04-07 06:30:00,
2013-04-07 02:33:00,63.3,42.7,29.91,SW,236,6.0,16.0,47,0.00,,,0.00,Wunderground v.1.15,2013-04-07 06:33:00,
2013-04-07 02:35:00,63.2,42.6,29.91,SW,233,3.0,16.0,47,0.00,,,0.00,Wunderground v.1.15,2013-04-07 06:35:00,
2013-04-07 02:38:00,63.1,42.5,29.92,WSW,244,5.0,16.0,47,0.00,,,0.00,Wunderground v.1.15,2013-04-07 06:38:00,
2013-04-07 02:40:00,63.1,42.5,29.92,WSW,249,9.0,16.0,47,0.00,,,0.00,Wunderground v.1.15,2013-04-07 06:40:00,
2013-04-07 02:41:00,63.1,42.5,29.92,SW,232,8.0,10.0,47,0.00,,,0.00,Wunderground v.1.15,2013-04-07 06:41:00,
2013-04-07 02:43:00,63.1,42.5,29.92,SSW,211,5.0,15.0,47,0.00,,,0.00,Wunderground v.1.15,2013-04-07 06:43:00,
2013-04-07 02:45:00,63.1,42.5,29.92,SW,219,12.0,15.0,47,0.00,,,0.00,Wunderground v.1.15,2013-04-07 06:45:00,
2013-04-07 02:46:00,63.1,42.5,29.92,WSW,237,5.0,15.0,47,0.00,,,0.00,Wunderground v.1.15,2013-04-07 06:46:00,
2013-04-07 02:48:00,63.1,42.5,29.91,SW,218,5.0,15.0,47,0.00,,,0.00,Wunderground v.1.15,2013-04-07 06:48:00,
2013-04-07 02:50:00,63.1,42.5,29.91,WSW,253,6.0,11.0,47,0.00,,,0.00,Wunderground v.1.15,2013-04-07 06:50:00,
2013-04-07 02:52:00,63.1,42.5,29.91,SW,232,12.0,12.0,47,0.00,,,0.00,Wunderground v.1.15,2013-04-07 06:52:00,
2013-04-07 02:53:00,63.0,42.4,29.91,SSW,195,10.0,13.0,47,0.00,,,0.00,Wunderground v.1.15,2013-04-07 06:53:00,
2013-04-07 02:55:00,63.0,42.4,29.92,SW,226,13.0,16.0,47,0.00,,,0.00,Wunderground v.1.15,2013-04-07 06:55:00,
2013-04-07 02:57:00,63.0,42.4,29.91,West,260,4.0,16.0,47,0.00,,,0.00,Wunderground v.1.15,2013-04-07 06:57:00,
2013-04-07 02:59:00,63.0,42.4,29.92,WSW,237,11.0,16.0,47,0.00,,,0.00,Wunderground v.1.15,2013-04-07 06:59:00,
2013-04-07 03:01:00,63.0,42.4,29.92,SW,229,6.0,8.0,47,0.00,,,0.00,Wunderground v.1.15,2013-04-07 07:01:00,
2013-04-07 03:02:00,63.0,42.4,29.92,SW,230,8.0,12.0,47,0.00,,,0.00,Wunderground v.1.15,2013-04-07 07:02:00,
2013-04-07 03:04:00,63.0,42.4,29.91,SSW,213,6.0,14.0,47,0.00,,,0.00,Wunderground v.1.15,2013-04-07 07:04:00,
2013-04-07 03:06:00,62.9,42.4,29.91,SW,236,6.0,14.0,47,0.00,,,0.00,Wunderground v.1.15,2013-04-07 07:06:00,
2013-04-07 03:07:00,62.9,42.4,29.91,SW,233,10.0,14.0,47,0.00,,,0.00,Wunderground v.1.15,2013-04-07 07:07:00,
2013-04-07 03:10:00,62.9,42.4,29.91,SSW,200,13.0,14.0,47,0.00,,,0.00,Wunderground v.1.15,2013-04-07 07:10:00,
2013-04-07 03:12:00,62.9,42.4,29.91,SW,228,4.0,12.0,47,0.00,,,0.00,Wunderground v.1.15,2013-04-07 07:12:00,
2013-04-07 03:15:00,62.8,42.3,29.91,WSW,255,4.0,13.0,47,0.00,,,0.00,Wunderground v.1.15,2013-04-07 07:15:00,
2013-04-07 03:17:00,62.9,42.4,29.91,SW,221,18.0,18.0,47,0.00,,,0.00,Wunderground v.1.15,2013-04-07 07:17:00,
2013-04-07 03:18:00,62.9,42.4,29.91,SW,225,12.0,18.0,47,0.00,,,0.00,Wunderground v.1.15,2013-04-07 07:18:00,
2013-04-07 03:20:00,62.9,42.4,29.91,SW,219,4.0,8.0,47,0.00,,,0.00,Wunderground v.1.15,2013-04-07 07:20:00,
2013-04-07 03:23:00,62.9,42.4,29.91,WSW,244,6.0,11.0,47,0.00,,,0.00,Wunderground v.1.15,2013-04-07 07:23:00,
2013-04-07 03:25:00,62.8,42.3,29.91,WSW,245,8.0,13.0,47,0.00,,,0.00,Wunderground v.1.15,2013-04-07 07:25:00,
2013-04-07 03:28:00,62.8,42.8,29.91,SW,215,4.0,13.0,48,0.00,,,0.00,Wunderground v.1.15,2013-04-07 07:28:00,
2013-04-07 03:31:00,62.7,42.7,29.91,SW,227,12.0,12.0,48,0.00,,,0.00,Wunderground v.1.15,2013-04-07 07:31:00,
2013-04-07 03:33:00,62.7,42.7,29.91,SW,236,9.0,12.0,48,0.00,,,0.00,Wunderground v.1.15,2013-04-07 07:33:00,
2013-04-07 03:34:00,62.6,42.6,29.91,SW,229,9.0,14.0,48,0.00,,,0.00,Wunderground v.1.15,2013-04-07 07:34:00,
2013-04-07 03:36:00,62.6,42.6,29.91,SW,234,6.0,15.0,48,0.00,,,0.00,Wunderground v.1.15,2013-04-07 07:36:00,
2013-04-07 03:38:00,62.6,42.6,29.91,SSW,211,13.0,15.0,48,0.00,,,0.00,Wunderground v.1.15,2013-04-07 07:38:00,
2013-04-07 03:39:00,62.5,42.5,29.91,WSW,242,5.0,15.0,48,0.00,,,0.00,Wunderground v.1.15,2013-04-07 07:39:00,
2013-04-07 03:41:00,62.5,42.5,29.91,SW,215,7.0,11.0,48,0.00,,,0.00,Wunderground v.1.15,2013-04-07 07:41:00,
2013-04-07 03:43:00,62.5,42.5,29.91,SW,216,7.0,12.0,48,0.00,,,0.00,Wunderground v.1.15,2013-04-07 07:43:00,
2013-04-07 03:44:00,62.5,42.5,29.91,SW,232,10.0,12.0,48,0.00,,,0.00,Wunderground v.1.15,2013-04-07 07:44:00,
2013-04-07 03:46:00,62.4,42.4,29.91,SW,234,11.0,15.0,48,0.00,,,0.00,Wunderground v.1.15,2013-04-07 07:46:00,
2013-04-07 03:47:00,62.4,42.4,29.91,WSW,251,4.0,15.0,48,0.00,,,0.00,Wunderground v.1.15,2013-04-07 07:47:00,
2013-04-07 03:49:00,62.4,42.4,29.91,SW,229,7.0,15.0,48,0.00,,,0.00,Wunderground v.1.15,2013-04-07 07:49:00,
2013-04-07 03:52:00,62.3,42.3,29.91,SW,222,11.0,11.0,48,0.00,,,0.00,Wunderground v.1.15,2013-04-07 07:52:00,
2013-04-07 03:54:00,62.4,42.4,29.91,SW,230,11.0,13.0,48,0.00,,,0.00,Wunderground v.1.15,2013-04-07 07:54:00,
2013-04-07 03:57:00,62.4,42.4,29.91,WSW,244,6.0,13.0,48,0.00,,,0.00,Wunderground v.1.15,2013-04-07 07:57:00,
2013-04-07 03:59:00,62.4,42.4,29.91,SW,220,12.0,15.0,48,0.00,,,0.00,Wunderground v.1.15,2013-04-07 07:59:00,
2013-04-07 04:00:00,62.4,42.4,29.91,WSW,242,4.0,15.0,48,0.00,,,0.00,Wunderground v.1.15,2013-04-07 08:00:00,
2013-04-07 04:02:00,62.4,42.4,29.91,WSW,240,6.0,14.0,48,0.00,,,0.00,Wunderground v.1.15,2013-04-07 08:02:00,
2013-04-07 04:03:00,62.4,42.4,29.91,SW,222,7.0,14.0,48,0.00,,,0.00,Wunderground v.1.15,2013-04-07 08:03:00,
2013-04-07 04:04:00,62.3,42.3,29.90,WSW,238,5.0,17.0,48,0.00,,,0.00,Wunderground v.1.15,2013-04-07 08:04:00,
2013-04-07 04:05:00,62.4,42.4,29.91,WSW,244,7.0,17.0,48,0.00,,,0.00,Wunderground v.1.15,2013-04-07 08:05:00,
2013-04-07 04:07:00,62.3,42.3,29.90,SW,215,5.0,17.0,48,0.00,,,0.00,Wunderground v.1.15,2013-04-07 08:07:00,
2013-04-07 04:09:00,62.3,42.9,29.90,SSW,209,7.0,17.0,49,0.00,,,0.00,Wunderground v.1.15,2013-04-07 08:09:00,
2013-04-07 04:10:00,62.3,42.9,29.91,WSW,251,10.0,17.0,49,0.00,,,0.00,Wunderground v.1.15,2013-04-07 08:10:00,
2013-04-07 04:11:00,62.3,42.9,29.90,SSW,205,7.0,17.0,49,0.00,,,0.00,Wunderground v.1.15,2013-04-07 08:11:00,
2013-04-07 04:12:00,62.3,42.9,29.90,SSW,211,5.0,17.0,49,0.00,,,0.00,Wunderground v.1.15,2013-04-07 08:12:00,
2013-04-07 04:15:00,62.3,42.9,29.90,WSW,246,7.0,17.0,49,0.00,,,0.00,Wunderground v.1.15,2013-04-07 08:15:00,
2013-04-07 04:16:00,62.3,42.9,29.90,WSW,237,7.0,17.0,49,0.00,,,0.00,Wunderground v.1.15,2013-04-07 08:16:00,
2013-04-07 04:17:00,62.3,42.9,29.90,WSW,241,6.0,17.0,49,0.00,,,0.00,Wunderground v.1.15,2013-04-07 08:17:00,
2013-04-07 04:20:00,62.3,42.9,29.90,SW,224,12.0,17.0,49,0.00,,,0.00,Wunderground v.1.15,2013-04-07 08:20:00,
2013-04-07 04:21:00,62.3,42.9,29.90,SW,225,7.0,11.0,49,0.00,,,0.00,Wunderground v.1.15,2013-04-07 08:21:00,
2013-04-07 04:22:00,62.3,42.9,29.90,WSW,242,11.0,11.0,49,0.00,,,0.00,Wunderground v.1.15,2013-04-07 08:22:00,
2013-04-07 04:25:00,62.4,43.0,29.90,WSW,237,6.0,14.0,49,0.00,,,0.00,Wunderground v.1.15,2013-04-07 08:25:00,
2013-04-07 04:26:00,62.4,43.0,29.91,WSW,251,6.0,14.0,49,0.00,,,0.00,Wunderground v.1.15,2013-04-07 08:26:00,
2013-04-07 04:27:00,62.4,43.0,29.91,SW,233,4.0,14.0,49,0.00,,,0.00,Wunderground v.1.15,2013-04-07 08:27:00,
2013-04-07 04:28:00,62.3,42.9,29.91,SW,234,4.0,14.0,49,0.00,,,0.00,Wunderground v.1.15,2013-04-07 08:28:00,
2013-04-07 04:30:00,62.3,42.9,29.90,SW,229,6.0,7.0,49,0.00,,,0.00,Wunderground v.1.15,2013-04-07 08:30:00,
2013-04-07 04:32:00,62.3,42.9,29.90,SSW,205,5.0,13.0,49,0.00,,,0.00,Wunderground v.1.15,2013-04-07 08:32:00,
2013-04-07 04:33:00,62.3,42.9,29.90,SW,229,5.0,13.0,49,0.00,,,0.00,Wunderground v.1.15,2013-04-07 08:33:00,
2013-04-07 04:36:00,62.3,42.9,29.90,SW,214,5.0,13.0,49,0.00,,,0.00,Wunderground v.1.15,2013-04-07 08:36:00,
2013-04-07 04:37:00,62.3,42.9,29.90,SSW,210,6.0,13.0,49,0.00,,,0.00,Wunderground v.1.15,2013-04-07 08:37:00,
2013-04-07 04:38:00,62.3,42.9,29.90,South,177,4.0,13.0,49,0.00,,,0.00,Wunderground v.1.15,2013-04-07 08:38:00,
2013-04-07 04:41:00,62.2,42.8,29.90,SSW,200,6.0,9.0,49,0.00,,,0.00,Wunderground v.1.15,2013-04-07 08:41:00,
2013-04-07 04:42:00,62.2,42.8,29.90,SSW,205,5.0,10.0,49,0.00,,,0.00,Wunderground v.1.15,2013-04-07 08:42:00,
2013-04-07 04:43:00,62.2,43.3,29.90,SW,222,5.0,10.0,50,0.00,,,0.00,Wunderground v.1.15,2013-04-07 08:43:00,
2013-04-07 04:47:00,62.1,42.7,29.90,SSW,200,5.0,11.0,49,0.00,,,0.00,Wunderground v.1.15,2013-04-07 08:47:00,
2013-04-07 04:48:00,62.1,43.2,29.90,SSW,200,5.0,11.0,50,0.00,,,0.00,Wunderground v.1.15,2013-04-07 08:48:00,
2013-04-07 04:50:00,62.1,42.7,29.90,SW,232,6.0,11.0,49,0.00,,,0.00,Wunderground v.1.15,2013-04-07 08:50:00,
2013-04-07 04:52:00,62.0,42.6,29.90,SW,218,5.0,16.0,49,0.00,,,0.00,Wunderground v.1.15,2013-04-07 08:52:00,
2013-04-07 04:54:00,62.1,42.7,29.90,SW,229,9.0,16.0,49,0.00,,,0.00,Wunderground v.1.15,2013-04-07 08:54:00,
2013-04-07 04:55:00,62.1,42.7,29.90,SSW,195,7.0,16.0,49,0.00,,,0.00,Wunderground v.1.15,2013-04-07 08:55:00,
2013-04-07 04:57:00,62.0,43.1,29.90,WSW,243,0.0,16.0,50,0.00,,,0.00,Wunderground v.1.15,2013-04-07 08:57:00,
2013-04-07 04:58:00,62.0,43.1,29.90,WSW,249,5.0,16.0,50,0.00,,,0.00,Wunderground v.1.15,2013-04-07 08:58:00,
2013-04-07 04:59:00,62.0,43.1,29.90,SW,226,10.0,16.0,50,0.00,,,0.00,Wunderground v.1.15,2013-04-07 08:59:00,
2013-04-07 05:00:00,62.0,43.1,29.90,SW,219,5.0,7.0,50,0.00,,,0.00,Wunderground v.1.15,2013-04-07 09:00:00,
2013-04-07 05:02:00,61.8,43.0,29.90,SSW,195,8.0,12.0,50,0.00,,,0.00,Wunderground v.1.15,2013-04-07 09:02:00,
2013-04-07 05:03:00,61.8,43.0,29.90,SW,219,13.0,13.0,50,0.00,,,0.00,Wunderground v.1.15,2013-04-07 09:03:00,
2013-04-07 05:05:00,61.8,43.0,29.90,SSW,213,5.0,13.0,50,0.00,,,0.00,Wunderground v.1.15,2013-04-07 09:05:00,
2013-04-07 05:07:00,61.7,42.9,29.90,SSW,200,6.0,13.0,50,0.00,,,0.00,Wunderground v.1.15,2013-04-07 09:07:00,
2013-04-07 05:08:00,61.7,42.9,29.90,SW,236,4.0,13.0,50,0.00,,,0.00,Wunderground v.1.15,2013-04-07 09:08:00,
2013-04-07 05:10:00,61.6,42.8,29.90,SSW,200,5.0,7.0,50,0.00,,,0.00,Wunderground v.1.15,2013-04-07 09:10:00,
2013-04-07 05:11:00,61.6,42.8,29.90,SW,234,9.0,9.0,50,0.00,,,0.00,Wunderground v.1.15,2013-04-07 09:11:00,
2013-04-07 05:12:00,61.6,42.8,29.90,West,262,11.0,11.0,50,0.00,,,0.00,Wunderground v.1.15,2013-04-07 09:12:00,
2013-04-07 05:14:00,61.6,42.8,29.90,South,190,5.0,14.0,50,0.00,,,0.00,Wunderground v.1.15,2013-04-07 09:14:00,
2013-04-07 05:15:00,61.5,42.7,29.90,WSW,238,5.0,14.0,50,0.00,,,0.00,Wunderground v.1.15,2013-04-07 09:15:00,
2013-04-07 05:16:00,61.5,42.7,29.90,SW,228,6.0,14.0,50,0.00,,,0.00,Wunderground v.1.15,2013-04-07 09:16:00,
2013-04-07 05:18:00,61.4,42.6,29.90,SSW,205,0.0,14.0,50,0.00,,,0.00,Wunderground v.1.15,2013-04-07 09:18:00,
2013-04-07 05:19:00,61.4,42.6,29.90,South,180,6.0,16.0,50,0.00,,,0.00,Wunderground v.1.15,2013-04-07 09:19:00,
2013-04-07 05:20:00,61.4,42.6,29.90,South,186,7.0,16.0,50,0.00,,,0.00,Wunderground v.1.15,2013-04-07 09:20:00,
2013-04-07 05:21:00,61.4,42.6,29.90,SSW,195,5.0,11.0,50,0.00,,,0.00,Wunderground v.1.15,2013-04-07 09:21:00,
2013-04-07 05:23:00,61.3,42.5,29.90,SW,224,15.0,15.0,50,0.00,,,0.00,Wunderground v.1.15,2013-04-07 09:23:00,
2013-04-07 05:24:00,61.2,42.9,29.90,WSW,242,5.0,15.0,51,0.00,,,0.00,Wunderground v.1.15,2013-04-07 09:24:00,
2013-04-07 05:25:00,61.2,42.9,29.90,SW,235,8.0,15.0,51,0.00,,,0.00,Wunderground v.1.15,2013-04-07 09:25:00,
2013-04-07 05:27:00,61.2,42.9,29.90,SSW,200,6.0,15.0,51,0.00,,,0.00,Wunderground v.1.15,2013-04-07 09:27:00,
2013-04-07 05:28:00,61.1,42.8,29.90,SW,224,9.0,15.0,51,0.00,,,0.00,Wunderground v.1.15,2013-04-07 09:28:00,
2013-04-07 05:30:00,61.1,42.8,29.90,SSW,205,10.0,15.0,51,0.00,,,0.00,Wunderground v.1.15,2013-04-07 09:30:00,
2013-04-07 05:32:00,61.0,42.7,29.90,SW,219,10.0,10.0,51,0.00,,,0.00,Wunderground v.1.15,2013-04-07 09:32:00,
2013-04-07 05:33:00,60.9,42.6,29.90,South,188,3.0,10.0,51,0.00,,,0.00,Wunderground v.1.15,2013-04-07 09:33:00,
2013-04-07 05:35:00,60.9,42.6,29.90,SW,222,2.0,11.0,51,0.00,,,0.00,Wunderground v.1.15,2013-04-07 09:35:00,
2013-04-07 05:37:00,60.8,42.5,29.90,SSW,209,5.0,15.0,51,0.00,,,0.00,Wunderground v.1.15,2013-04-07 09:37:00,
2013-04-07 05:39:00,60.7,42.5,29.90,SSW,195,2.0,15.0,51,0.00,,,0.00,Wunderground v.1.15,2013-04-07 09:39:00,
2013-04-07 05:40:00,60.7,42.5,29.90,South,189,7.0,15.0,51,0.00,,,0.00,Wunderground v.1.15,2013-04-07 09:40:00,
2013-04-07 05:41:00,60.6,42.4,29.90,South,186,3.0,9.0,51,0.00,,,0.00,Wunderground v.1.15,2013-04-07 09:41:00,
2013-04-07 05:43:00,60.5,42.8,29.90,SSW,210,4.0,9.0,52,0.00,,,0.00,Wunderground v.1.15,2013-04-07 09:43:00,
2013-04-07 05:44:00,60.5,42.8,29.90,South,189,12.0,14.0,52,0.00,,,0.00,Wunderground v.1.15,2013-04-07 09:44:00,
2013-04-07 05:47:00,60.4,42.7,29.90,SSW,205,10.0,14.0,52,0.00,,,0.00,Wunderground v.1.15,2013-04-07 09:47:00,
2013-04-07 05:48:00,60.3,42.6,29.90,SSW,195,5.0,14.0,52,0.00,,,0.00,Wunderground v.1.15,2013-04-07 09:48:00,
2013-04-07 05:50:00,60.3,42.6,29.90,SSW,211,2.0,14.0,52,0.00,,,0.00,Wunderground v.1.15,2013-04-07 09:50:00,
2013-04-07 05:52:00,60.3,42.6,29.90,SW,232,10.0,10.0,52,0.00,,,0.00,Wunderground v.1.15,2013-04-07 09:52:00,
2013-04-07 05:53:00,60.2,42.5,29.90,WSW,255,9.0,11.0,52,0.00,,,0.00,Wunderground v.1.15,2013-04-07 09:53:00,
2013-04-07 05:55:00,60.2,42.5,29.90,SW,221,3.0,11.0,52,0.00,,,0.00,Wunderground v.1.15,2013-04-07 09:55:00,
2013-04-07 05:57:00,60.2,42.5,29.91,SSW,195,6.0,11.0,52,0.00,,,0.00,Wunderground v.1.15,2013-04-07 09:57:00,
2013-04-07 05:58:00,60.1,42.4,29.91,South,171,0.0,11.0,52,0.00,,,0.00,Wunderground v.1.15,2013-04-07 09:58:00,
2013-04-07 06:00:00,60.1,42.4,29.91,SW,230,7.0,11.0,52,0.00,,,0.00,Wunderground v.1.15,2013-04-07 10:00:00,
2013-04-07 06:02:00,60.0,42.3,29.91,WSW,239,6.0,10.0,52,0.00,,,0.00,Wunderground v.1.15,2013-04-07 10:02:00,
2013-04-07 06:03:00,60.0,42.8,29.90,SSW,209,6.0,10.0,53,0.00,,,0.00,Wunderground v.1.15,2013-04-07 10:03:00,
2013-04-07 06:05:00,59.9,42.7,29.91,SW,228,5.0,11.0,53,0.00,,,0.00,Wunderground v.1.15,2013-04-07 10:05:00,
2013-04-07 06:07:00,59.8,42.6,29.91,SSW,200,5.0,11.0,53,0.00,,,0.00,Wunderground v.1.15,2013-04-07 10:07:00,
2013-04-07 06:09:00,59.7,42.5,29.91,WSW,253,7.0,11.0,53,0.00,,,0.00,Wunderground v.1.15,2013-04-07 10:09:00,
2013-04-07 06:10:00,59.7,42.5,29.91,SW,224,5.0,6.0,53,0.00,,,0.00,Wunderground v.1.15,2013-04-07 10:10:00,
2013-04-07 06:12:00,59.6,42.4,29.91,SW,226,2.0,6.0,53,0.00,,,0.00,Wunderground v.1.15,2013-04-07 10:12:00,
2013-04-07 06:14:00,59.5,42.3,29.91,SSW,200,3.0,9.0,53,0.00,,,0.00,Wunderground v.1.15,2013-04-07 10:14:00,
2013-04-07 06:15:00,59.5,42.8,29.91,SW,219,4.0,9.0,54,0.00,,,0.00,Wunderground v.1.15,2013-04-07 10:15:00,
2013-04-07 06:17:00,59.5,42.3,29.91,SW,228,7.0,9.0,53,0.00,,,0.00,Wunderground v.1.15,2013-04-07 10:17:00,
2013-04-07 06:18:00,59.4,42.7,29.91,SW,219,5.0,9.0,54,0.00,,,0.00,Wunderground v.1.15,2013-04-07 10:18:00,
2013-04-07 06:19:00,59.3,42.6,29.91,SW,234,4.0,9.0,54,0.00,,,0.00,Wunderground v.1.15,2013-04-07 10:19:00,
2013-04-07 06:20:00,59.3,42.6,29.91,SW,228,7.0,7.0,54,0.00,,,0.00,Wunderground v.1.15,2013-04-07 10:20:00,
2013-04-07 06:22:00,59.3,42.6,29.91,SW,215,5.0,11.0,54,0.00,,,0.00,Wunderground v.1.15,2013-04-07 10:22:00,
2013-04-07 06:23:00,59.2,42.6,29.91,SSW,211,7.0,11.0,54,0.00,,,0.00,Wunderground v.1.15,2013-04-07 10:23:00,
2013-04-07 06:24:00,59.1,42.5,29.91,South,190,6.0,11.0,54,0.00,,,0.00,Wunderground v.1.15,2013-04-07 10:24:00,
2013-04-07 06:27:00,59.1,42.5,29.91,SW,228,7.0,11.0,54,0.00,,,0.00,Wunderground v.1.15,2013-04-07 10:27:00,
2013-04-07 06:28:00,59.1,42.5,29.91,SW,217,8.0,11.0,54,0.00,,,0.00,Wunderground v.1.15,2013-04-07 10:28:00,
2013-04-07 06:29:00,59.0,42.4,29.91,WSW,247,8.0,11.0,54,0.00,,,0.00,Wunderground v.1.15,2013-04-07 10:29:00,
2013-04-07 06:32:00,59.0,42.4,29.91,SSE,161,3.0,9.0,54,0.00,,,0.00,Wunderground v.1.15,2013-04-07 10:32:00,
2013-04-07 06:33:00,59.0,42.4,29.91,SSW,195,3.0,9.0,54,0.00,,,0.00,Wunderground v.1.15,2013-04-07 10:33:00,
2013-04-07 06:34:00,59.0,42.4,29.91,SW,234,7.0,10.0,54,0.00,,,0.00,Wunderground v.1.15,2013-04-07 10:34:00,
2013-04-07 06:37:00,59.0,42.4,29.91,SSE,165,5.0,10.0,54,0.00,,,0.00,Wunderground v.1.15,2013-04-07 10:37:00,
2013-04-07 06:38:00,59.0,42.4,29.91,SW,221,4.0,10.0,54,0.00,,,0.00,Wunderground v.1.15,2013-04-07 10:38:00,
2013-04-07 06:39:00,59.0,42.4,29.91,SSW,209,4.0,10.0,54,0.00,,,0.00,Wunderground v.1.15,2013-04-07 10:39:00,
2013-04-07 06:40:00,59.0,42.4,29.91,South,188,2.0,10.0,54,0.00,,,0.00,Wunderground v.1.15,2013-04-07 10:40:00,
2013-04-07 06:42:00,59.0,42.4,29.91,SSW,213,2.0,7.0,54,0.00,,,0.00,Wunderground v.1.15,2013-04-07 10:42:00,
2013-04-07 06:43:00,59.0,42.8,29.91,South,191,7.0,7.0,55,0.00,,,0.00,Wunderground v.1.15,2013-04-07 10:43:00,
2013-04-07 06:44:00,59.0,42.8,29.91,SSW,195,6.0,7.0,55,0.00,,,0.00,Wunderground v.1.15,2013-04-07 10:44:00,
2013-04-07 06:45:00,59.0,42.8,29.91,SSW,195,2.0,9.0,55,0.00,,,0.00,Wunderground v.1.15,2013-04-07 10:45:00,
2013-04-07 06:47:00,58.8,42.7,29.91,SW,215,4.0,9.0,55,0.00,,,0.00,Wunderground v.1.15,2013-04-07 10:47:00,
2013-04-07 06:49:00,58.7,42.6,29.91,SW,221,8.0,10.0,55,0.00,,,0.00,Wunderground v.1.15,2013-04-07 10:49:00,
2013-04-07 06:50:00,58.7,42.6,29.91,SSW,213,6.0,10.0,55,0.00,,,0.00,Wunderground v.1.15,2013-04-07 10:50:00,
2013-04-07 06:53:00,58.6,42.5,29.91,SSW,200,4.0,7.0,55,0.00,,,0.00,Wunderground v.1.15,2013-04-07 10:53:00,
2013-04-07 06:54:00,58.6,42.5,29.91,SSW,200,2.0,7.0,55,0.00,,,0.00,Wunderground v.1.15,2013-04-07 10:54:00,
2013-04-07 06:55:00,58.5,42.8,29.91,West,266,7.0,14.0,56,0.00,,,0.00,Wunderground v.1.15,2013-04-07 10:55:00,
2013-04-07 06:58:00,58.5,42.4,29.91,SW,214,3.0,14.0,55,0.00,,,0.00,Wunderground v.1.15,2013-04-07 10:58:00,
2013-04-07 07:00:00,58.4,42.3,29.91,SSW,200,2.0,14.0,55,0.00,,,0.00,Wunderground v.1.15,2013-04-07 11:00:00,
2013-04-07 07:03:00,58.4,42.8,29.92,SSW,200,5.0,6.0,56,0.00,,,0.00,Wunderground v.1.15,2013-04-07 11:03:00,
2013-04-07 07:05:00,58.3,42.7,29.92,SW,222,12.0,12.0,56,0.00,,,0.00,Wunderground v.1.15,2013-04-07 11:05:00,
2013-04-07 07:08:00,58.3,42.7,29.92,SW,215,2.0,12.0,56,0.00,,,0.00,Wunderground v.1.15,2013-04-07 11:08:00,
2013-04-07 07:09:00,58.2,42.6,29.92,SW,220,3.0,12.0,56,0.00,,,0.00,Wunderground v.1.15,2013-04-07 11:09:00,
2013-04-07 07:10:00,58.2,42.6,29.92,SW,226,3.0,12.0,56,0.00,,,0.00,Wunderground v.1.15,2013-04-07 11:10:00,
2013-04-07 07:13:00,58.2,42.6,29.92,SW,228,3.0,10.0,56,0.00,,,0.00,Wunderground v.1.15,2013-04-07 11:13:00,
2013-04-07 07:15:00,58.2,42.6,29.92,SSW,200,4.0,10.0,56,0.00,,,0.00,Wunderground v.1.15,2013-04-07 11:15:00,
2013-04-07 07:18:00,58.2,42.6,29.92,SSW,205,5.0,10.0,56,0.00,,,0.00,Wunderground v.1.15,2013-04-07 11:18:00,
2013-04-07 07:20:00,58.2,42.6,29.92,WSW,242,1.0,10.0,56,0.00,,,0.00,Wunderground v.1.15,2013-04-07 11:20:00,
2013-04-07 07:23:00,58.2,42.6,29.92,SW,224,3.0,8.0,56,0.00,,,0.00,Wunderground v.1.15,2013-04-07 11:23:00,
2013-04-07 07:25:00,58.2,42.6,29.93,SSW,205,4.0,8.0,56,0.00,,,0.00,Wunderground v.1.15,2013-04-07 11:25:00,
2013-04-07 07:26:00,58.3,42.7,29.93,SSW,211,4.0,8.0,56,0.00,,,0.00,Wunderground v.1.15,2013-04-07 11:26:00,
2013-04-07 07:28:00,58.3,42.7,29.93,SW,222,3.0,8.0,56,0.00,,,0.00,Wunderground v.1.15,2013-04-07 11:28:00,
2013-04-07 07:30:00,58.3,42.7,29.93,SSW,211,5.0,8.0,56,0.00,,,0.00,Wunderground v.1.15,2013-04-07 11:30:00,
2013-04-07 07:31:00,58.3,42.7,29.93,SSW,211,10.0,10.0,56,0.00,,,0.00,Wunderground v.1.15,2013-04-07 11:31:00,
2013-04-07 07:34:00,58.4,42.8,29.93,SSW,209,5.0,10.0,56,0.00,,,0.00,Wunderground v.1.15,2013-04-07 11:34:00,
2013-04-07 07:35:00,58.4,42.8,29.93,SW,226,4.0,10.0,56,0.00,,,0.00,Wunderground v.1.15,2013-04-07 11:35:00,
2013-04-07 07:36:00,58.4,42.8,29.93,SW,225,1.0,10.0,56,0.00,,,0.00,Wunderground v.1.15,2013-04-07 11:36:00,
2013-04-07 07:37:00,58.5,43.3,29.93,SW,228,0.0,10.0,57,0.00,,,0.00,Wunderground v.1.15,2013-04-07 11:37:00,
2013-04-07 07:39:00,58.6,42.9,29.93,SW,222,5.0,10.0,56,0.00,,,0.00,Wunderground v.1.15,2013-04-07 11:39:00,
2013-04-07 07:40:00,58.6,42.9,29.93,WSW,237,7.0,7.0,56,0.00,,,0.00,Wunderground v.1.15,2013-04-07 11:40:00,
2013-04-07 07:41:00,58.6,42.9,29.93,SSW,211,9.0,9.0,56,0.00,,,0.00,Wunderground v.1.15,2013-04-07 11:41:00,
2013-04-07 07:42:00,58.7,43.0,29.93,SW,229,4.0,12.0,56,0.00,,,0.00,Wunderground v.1.15,2013-04-07 11:42:00,
2013-04-07 07:44:00,58.9,43.2,29.93,SW,222,4.0,12.0,56,0.00,,,0.00,Wunderground v.1.15,2013-04-07 11:44:00,
2013-04-07 07:45:00,59.0,43.8,29.93,SW,214,5.0,12.0,57,0.00,,,0.00,Wunderground v.1.15,2013-04-07 11:45:00,
2013-04-07 07:47:00,59.0,43.3,29.93,SSW,211,4.0,12.0,56,0.00,,,0.00,Wunderground v.1.15,2013-04-07 11:47:00,
2013-04-07 07:50:00,59.0,43.3,29.94,SW,232,9.0,12.0,56,0.00,,,0.00,Wunderground v.1.15,2013-04-07 11:50:00,
2013-04-07 07:51:00,59.0,43.3,29.94,SSW,195,5.0,5.0,56,0.00,,,0.00,Wunderground v.1.15,2013-04-07 11:51:00,
2013-04-07 07:52:00,59.0,43.3,29.94,SW,218,2.0,5.0,56,0.00,,,0.00,Wunderground v.1.15,2013-04-07 11:52:00,
2013-04-07 07:53:00,59.0,43.3,29.94,SW,221,5.0,6.0,56,0.00,,,0.00,Wunderground v.1.15,2013-04-07 11:53:00,
2013-04-07 07:55:00,59.0,43.3,29.94,SW,222,3.0,6.0,56,0.00,,,0.00,Wunderground v.1.15,2013-04-07 11:55:00,
2013-04-07 07:56:00,59.0,43.3,29.93,South,190,3.0,7.0,56,0.00,,,0.00,Wunderground v.1.15,2013-04-07 11:56:00,
2013-04-07 07:58:00,59.0,43.3,29.93,SW,214,6.0,10.0,56,0.00,,,0.00,Wunderground v.1.15,2013-04-07 11:58:00,
2013-04-07 08:00:00,59.0,43.3,29.93,SW,226,9.0,10.0,56,0.00,,,0.00,Wunderground v.1.15,2013-04-07 12:00:00,
2013-04-07 08:02:00,59.1,43.4,29.94,SSW,213,4.0,7.0,56,0.00,,,0.00,Wunderground v.1.15,2013-04-07 12:02:00,
2013-04-07 08:03:00,59.1,43.4,29.94,SSW,195,11.0,11.0,56,0.00,,,0.00,Wunderground v.1.15,2013-04-07 12:03:00,
2013-04-07 08:05:00,59.3,43.6,29.94,SSW,211,6.0,11.0,56,0.00,,,0.00,Wunderground v.1.15,2013-04-07 12:05:00,
2013-04-07 08:07:00,59.3,43.6,29.94,SSW,195,4.0,11.0,56,0.00,,,0.00,Wunderground v.1.15,2013-04-07 12:07:00,
2013-04-07 08:08:00,59.3,43.6,29.94,South,185,7.0,12.0,56,0.00,,,0.00,Wunderground v.1.15,2013-04-07 12:08:00,
2013-04-07 08:09:00,59.4,43.7,29.94,South,179,4.0,12.0,56,0.00,,,0.00,Wunderground v.1.15,2013-04-07 12:09:00,
2013-04-07 08:10:00,59.4,43.7,29.94,SW,220,5.0,12.0,56,0.00,,,0.00,Wunderground v.1.15,2013-04-07 12:10:00,
2013-04-07 08:12:00,59.4,43.7,29.94,SSW,195,5.0,14.0,56,0.00,,,0.00,Wunderground v.1.15,2013-04-07 12:12:00,
2013-04-07 08:14:00,59.5,43.8,29.94,WSW,251,5.0,16.0,56,0.00,,,0.00,Wunderground v.1.15,2013-04-07 12:14:00,
2013-04-07 08:15:00,59.5,43.8,29.94,SW,236,3.0,16.0,56,0.00,,,0.00,Wunderground v.1.15,2013-04-07 12:15:00,
2013-04-07 08:18:00,59.6,43.9,29.94,SSW,195,13.0,16.0,56,0.00,,,0.00,Wunderground v.1.15,2013-04-07 12:18:00,
2013-04-07 08:19:00,59.6,43.4,29.94,SSW,205,3.0,16.0,55,0.00,,,0.00,Wunderground v.1.15,2013-04-07 12:19:00,
2013-04-07 08:20:00,59.7,43.5,29.94,SSW,211,6.0,16.0,55,0.00,,,0.00,Wunderground v.1.15,2013-04-07 12:20:00,
2013-04-07 08:21:00,59.7,44.0,29.94,SSW,213,9.0,9.0,56,0.00,,,0.00,Wunderground v.1.15,2013-04-07 12:21:00,
2013-04-07 08:23:00,59.7,44.0,29.94,SW,222,7.0,13.0,56,0.00,,,0.00,Wunderground v.1.15,2013-04-07 12:23:00,
2013-04-07 08:25:00,59.7,44.0,29.94,SSW,209,9.0,13.0,56,0.00,,,0.00,Wunderground v.1.15,2013-04-07 12:25:00,
2013-04-07 08:27:00,59.7,44.0,29.95,SW,219,3.0,13.0,56,0.00,,,0.00,Wunderground v.1.15,2013-04-07 12:27:00,
2013-04-07 08:28:00,59.7,44.0,29.95,SW,232,7.0,13.0,56,0.00,,,0.00,Wunderground v.1.15,2013-04-07 12:28:00,
2013-04-07 08:30:00,59.8,44.1,29.95,SW,218,8.0,8.0,56,0.00,,,0.00,Wunderground v.1.15,2013-04-07 12:30:00,
2013-04-07 08:31:00,59.8,44.1,29.95,WSW,255,7.0,11.0,56,0.00,,,0.00,Wunderground v.1.15,2013-04-07 12:31:00,
2013-04-07 08:32:00,59.8,44.1,29.95,SW,225,7.0,12.0,56,0.00,,,0.00,Wunderground v.1.15,2013-04-07 12:32:00,
2013-04-07 08:33:00,59.8,44.1,29.95,SW,228,8.0,12.0,56,0.00,,,0.00,Wunderground v.1.15,2013-04-07 12:33:00,
2013-04-07 08:36:00,59.8,44.1,29.95,SW,221,10.0,12.0,56,0.00,,,0.00,Wunderground v.1.15,2013-04-07 12:36:00,
2013-04-07 08:38:00,59.8,44.1,29.95,SW,216,3.0,12.0,56,0.00,,,0.00,Wunderground v.1.15,2013-04-07 12:38:00,
2013-04-07 08:41:00,59.9,44.2,29.95,SW,232,9.0,10.0,56,0.00,,,0.00,Wunderground v.1.15,2013-04-07 12:41:00,
2013-04-07 08:43:00,59.9,44.2,29.95,SW,234,9.0,16.0,56,0.00,,,0.00,Wunderground v.1.15,2013-04-07 12:43:00,
2013-04-07 08:45:00,59.9,44.6,29.95,WSW,248,4.0,16.0,57,0.00,,,0.00,Wunderground v.1.15,2013-04-07 12:45:00,
2013-04-07 08:47:00,60.0,44.3,29.95,SW,233,7.0,16.0,56,0.00,,,0.00,Wunderground v.1.15,2013-04-07 12:47:00,
2013-04-07 08:48:00,60.0,44.3,29.95,West,262,3.0,16.0,56,0.00,,,0.00,Wunderground v.1.15,2013-04-07 12:48:00,
2013-04-07 08:49:00,60.0,44.7,29.95,SSW,205,5.0,16.0,57,0.00,,,0.00,Wunderground v.1.15,2013-04-07 12:49:00,
2013-04-07 08:50:00,60.0,44.7,29.95,WSW,237,11.0,11.0,57,0.00,,,0.00,Wunderground v.1.15,2013-04-07 12:50:00,
2013-04-07 08:52:00,60.0,44.7,29.95,SW,228,4.0,11.0,57,0.00,,,0.00,Wunderground v.1.15,2013-04-07 12:52:00,
2013-04-07 08:53:00,60.0,44.3,29.96,SW,234,8.0,11.0,56,0.00,,,0.00,Wunderground v.1.15,2013-04-07 12:53:00,
2013-04-07 08:55:00,60.0,44.7,29.95,SW,233,6.0,11.0,57,0.00,,,0.00,Wunderground v.1.15,2013-04-07 12:55:00,
2013-04-07 08:56:00,60.0,44.3,29.95,WSW,253,10.0,11.0,56,0.00,,,0.00,Wunderground v.1.15,2013-04-07 12:56:00,
2013-04-07 08:57:00,60.1,44.8,29.96,SSW,212,6.0,11.0,57,0.00,,,0.00,Wunderground v.1.15,2013-04-07 12:57:00,
2013-04-07 09:00:00,60.2,44.9,29.96,SW,236,3.0,11.0,57,0.00,,,0.00,Wunderground v.1.15,2013-04-07 13:00:00,
2013-04-07 09:01:00,60.2,44.9,29.96,SW,222,3.0,6.0,57,0.00,,,0.00,Wunderground v.1.15,2013-04-07 13:01:00,
2013-04-07 09:02:00,60.2,44.9,29.96,SSW,200,10.0,10.0,57,0.00,,,0.00,Wunderground v.1.15,2013-04-07 13:02:00,
2013-04-07 09:05:00,60.3,44.5,29.96,WSW,242,8.0,12.0,56,0.00,,,0.00,Wunderground v.1.15,2013-04-07 13:05:00,
2013-04-07 09:07:00,60.4,44.6,29.96,West,260,7.0,12.0,56,0.00,,,0.00,Wunderground v.1.15,2013-04-07 13:07:00,
2013-04-07 09:10:00,60.5,44.7,29.96,SW,218,5.0,5.0,56,0.00,,,0.00,Wunderground v.1.15,2013-04-07 13:10:00,
2013-04-07 09:12:00,60.5,44.7,29.96,WSW,246,5.0,7.0,56,0.00,,,0.00,Wunderground v.1.15,2013-04-07 13:12:00,
2013-04-07 09:13:00,60.6,44.8,29.96,SW,226,6.0,7.0,56,0.00,,,0.00,Wunderground v.1.15,2013-04-07 13:13:00,
2013-04-07 09:15:00,60.7,44.9,29.96,SW,221,5.0,11.0,56,0.00,,,0.00,Wunderground v.1.15,2013-04-07 13:15:00,
2013-04-07 09:18:00,60.7,44.9,29.96,WSW,250,5.0,11.0,56,0.00,,,0.00,Wunderground v.1.15,2013-04-07 13:18:00,
2013-04-07 09:21:00,60.8,45.0,29.96,SW,215,4.0,6.0,56,0.00,,,0.00,Wunderground v.1.15,2013-04-07 13:21:00,
2013-04-07 09:23:00,60.9,45.6,29.96,WSW,240,7.0,12.0,57,0.00,,,0.00,Wunderground v.1.15,2013-04-07 13:23:00,
2013-04-07 09:24:00,60.9,45.1,29.96,WSW,240,12.0,12.0,56,0.00,,,0.00,Wunderground v.1.15,2013-04-07 13:24:00,
2013-04-07 09:26:00,61.0,45.2,29.96,SW,229,5.0,13.0,56,0.00,,,0.00,Wunderground v.1.15,2013-04-07 13:26:00,
2013-04-07 09:28:00,61.0,45.2,29.96,SSW,195,7.0,13.0,56,0.00,,,0.00,Wunderground v.1.15,2013-04-07 13:28:00,
2013-04-07 09:29:00,61.1,45.3,29.96,SW,236,5.0,13.0,56,0.00,,,0.00,Wunderground v.1.15,2013-04-07 13:29:00,
2013-04-07 09:32:00,61.2,45.4,29.96,SW,231,10.0,10.0,56,0.00,,,0.00,Wunderground v.1.15,2013-04-07 13:32:00,
2013-04-07 09:33:00,61.2,45.4,29.96,West,269,4.0,10.0,56,0.00,,,0.00,Wunderground v.1.15,2013-04-07 13:33:00,
2013-04-07 09:34:00,61.2,45.4,29.96,WSW,242,5.0,10.0,56,0.00,,,0.00,Wunderground v.1.15,2013-04-07 13:34:00,
2013-04-07 09:38:00,61.3,45.5,29.96,SW,236,6.0,10.0,56,0.00,,,0.00,Wunderground v.1.15,2013-04-07 13:38:00,
2013-04-07 09:39:00,61.4,46.0,29.96,SW,232,1.0,10.0,57,0.00,,,0.00,Wunderground v.1.15,2013-04-07 13:39:00,
2013-04-07 09:40:00,61.4,46.0,29.96,SW,229,5.0,6.0,57,0.00,,,0.00,Wunderground v.1.15,2013-04-07 13:40:00,
2013-04-07 09:42:00,61.4,46.0,29.96,SW,224,9.0,10.0,57,0.00,,,0.00,Wunderground v.1.15,2013-04-07 13:42:00,
2013-04-07 09:43:00,61.4,45.6,29.96,WSW,248,2.0,10.0,56,0.00,,,0.00,Wunderground v.1.15,2013-04-07 13:43:00,
2013-04-07 09:45:00,61.5,46.1,29.96,WSW,257,4.0,10.0,57,0.00,,,0.00,Wunderground v.1.15,2013-04-07 13:45:00,
2013-04-07 09:47:00,61.5,46.1,29.96,SW,216,3.0,10.0,57,0.00,,,0.00,Wunderground v.1.15,2013-04-07 13:47:00,
2013-04-07 09:48:00,61.5,46.1,29.96,WSW,251,6.0,10.0,57,0.00,,,0.00,Wunderground v.1.15,2013-04-07 13:48:00,
2013-04-07 09:50:00,61.6,46.2,29.96,SW,234,10.0,10.0,57,0.00,,,0.00,Wunderground v.1.15,2013-04-07 13:50:00,
2013-04-07 09:51:00,61.6,46.2,29.96,SW,214,5.0,10.0,57,0.00,,,0.00,Wunderground v.1.15,2013-04-07 13:51:00,
2013-04-07 09:52:00,61.7,45.8,29.96,SW,225,12.0,13.0,56,0.00,,,0.00,Wunderground v.1.15,2013-04-07 13:52:00,
2013-04-07 09:53:00,61.7,45.8,29.96,SW,228,8.0,13.0,56,0.00,,,0.00,Wunderground v.1.15,2013-04-07 13:53:00,
2013-04-07 09:56:00,61.8,46.4,29.96,WSW,256,3.0,13.0,57,0.00,,,0.00,Wunderground v.1.15,2013-04-07 13:56:00,
2013-04-07 09:57:00,61.8,46.4,29.96,SSW,210,4.0,13.0,57,0.00,,,0.00,Wunderground v.1.15,2013-04-07 13:57:00,
2013-04-07 09:58:00,61.9,46.5,29.96,SW,220,5.0,13.0,57,0.00,,,0.00,Wunderground v.1.15,2013-04-07 13:58:00,
2013-04-07 10:02:00,62.0,46.1,29.96,WSW,246,5.0,10.0,56,0.00,,,0.00,Wunderground v.1.15,2013-04-07 14:02:00,
2013-04-07 10:05:00,62.2,46.8,29.96,SW,227,11.0,11.0,57,0.00,,,0.00,Wunderground v.1.15,2013-04-07 14:05:00,
2013-04-07 10:07:00,62.2,46.8,29.96,West,265,3.0,11.0,57,0.00,,,0.00,Wunderground v.1.15,2013-04-07 14:07:00,
2013-04-07 10:11:00,62.5,46.6,29.96,WSW,237,7.0,13.0,56,0.00,,,0.00,Wunderground v.1.15,2013-04-07 14:11:00,
2013-04-07 10:12:00,62.6,47.1,29.96,WSW,244,6.0,13.0,57,0.00,,,0.00,Wunderground v.1.15,2013-04-07 14:12:00,
2013-04-07 10:13:00,62.6,46.7,29.96,West,264,9.0,13.0,56,0.00,,,0.00,Wunderground v.1.15,2013-04-07 14:13:00,
2013-04-07 10:17:00,63.0,47.5,29.96,SW,232,12.0,13.0,57,0.00,,,0.00,Wunderground v.1.15,2013-04-07 14:17:00,
2013-04-07 10:18:00,63.1,47.1,29.96,WSW,249,12.0,14.0,56,0.00,,,0.00,Wunderground v.1.15,2013-04-07 14:18:00,
2013-04-07 10:22:00,63.6,47.6,29.96,WSW,242,6.0,16.0,56,0.00,,,0.00,Wunderground v.1.15,2013-04-07 14:22:00,
2013-04-07 10:23:00,63.6,47.6,29.96,WSW,244,5.0,16.0,56,0.00,,,0.00,Wunderground v.1.15,2013-04-07 14:23:00,
2013-04-07 10:28:00,64.1,48.5,29.96,WSW,238,6.0,16.0,57,0.00,,,0.00,Wunderground v.1.15,2013-04-07 14:28:00,
2013-04-07 10:33:00,64.6,48.5,29.96,SW,235,7.0,12.0,56,0.00,,,0.00,Wunderground v.1.15,2013-04-07 14:33:00,
2013-04-07 10:38:00,64.9,48.3,29.96,SW,226,13.0,23.0,55,0.00,,,0.00,Wunderground v.1.15,2013-04-07 14:38:00,
2013-04-07 10:39:00,64.9,48.8,29.96,SSW,213,17.0,23.0,56,0.00,,,0.00,Wunderground v.1.15,2013-04-07 14:39:00,
2013-04-07 10:43:00,65.0,48.9,29.96,SW,233,8.0,17.0,56,0.00,,,0.00,Wunderground v.1.15,2013-04-07 14:43:00,
2013-04-07 10:45:00,65.0,49.4,29.96,SW,222,12.0,18.0,57,0.00,,,0.00,Wunderground v.1.15,2013-04-07 14:45:00,
2013-04-07 10:50:00,65.3,48.7,29.96,WSW,238,15.0,18.0,55,0.00,,,0.00,Wunderground v.1.15,2013-04-07 14:50:00,
2013-04-07 10:55:00,65.6,49.5,29.96,WSW,250,9.0,16.0,56,0.00,,,0.00,Wunderground v.1.15,2013-04-07 14:55:00,
2013-04-07 10:56:00,65.6,49.5,29.96,WSW,242,10.0,16.0,56,0.00,,,0.00,Wunderground v.1.15,2013-04-07 14:56:00,
2013-04-07 11:00:00,65.9,49.8,29.96,SSW,200,14.0,21.0,56,0.00,,,0.00,Wunderground v.1.15,2013-04-07 15:00:00,
2013-04-07 11:01:00,65.9,49.3,29.96,South,185,9.0,10.0,55,0.00,,,0.00,Wunderground v.1.15,2013-04-07 15:01:00,
2013-04-07 11:05:00,66.1,49.9,29.96,SSW,195,11.0,16.0,56,0.00,,,0.00,Wunderground v.1.15,2013-04-07 15:05:00,
2013-04-07 11:06:00,66.2,50.5,29.96,WNW,285,14.0,16.0,57,0.00,,,0.00,Wunderground v.1.15,2013-04-07 15:06:00,
2013-04-07 11:10:00,66.4,50.2,29.96,WSW,250,9.0,9.0,56,0.00,,,0.00,Wunderground v.1.15,2013-04-07 15:10:00,
2013-04-07 11:11:00,66.4,50.2,29.96,WSW,248,9.0,10.0,56,0.00,,,0.00,Wunderground v.1.15,2013-04-07 15:11:00,
2013-04-07 11:12:00,66.5,49.8,29.96,SW,216,12.0,12.0,55,0.00,,,0.00,Wunderground v.1.15,2013-04-07 15:12:00,
2013-04-07 11:15:00,66.7,49.5,29.96,SW,224,8.0,18.0,54,0.00,,,0.00,Wunderground v.1.15,2013-04-07 15:15:00,
2013-04-07 11:16:00,66.7,50.0,29.96,SW,234,5.0,18.0,55,0.00,,,0.00,Wunderground v.1.15,2013-04-07 15:16:00,
2013-04-07 11:17:00,66.7,50.5,29.96,WSW,242,9.0,18.0,56,0.00,,,0.00,Wunderground v.1.15,2013-04-07 15:17:00,
2013-04-07 11:18:00,66.7,50.0,29.96,SW,236,5.0,18.0,55,0.00,,,0.00,Wunderground v.1.15,2013-04-07 15:18:00,
2013-04-07 11:20:00,66.8,51.1,29.96,West,261,5.0,9.0,57,0.00,,,0.00,Wunderground v.1.15,2013-04-07 15:20:00,
2013-04-07 11:21:00,66.8,50.6,29.96,SW,236,3.0,9.0,56,0.00,,,0.00,Wunderground v.1.15,2013-04-07 15:21:00,
2013-04-07 11:22:00,66.9,50.7,29.96,WSW,250,6.0,9.0,56,0.00,,,0.00,Wunderground v.1.15,2013-04-07 15:22:00,
2013-04-07 11:25:00,67.2,50.5,29.96,WSW,253,4.0,9.0,55,0.00,,,0.00,Wunderground v.1.15,2013-04-07 15:25:00,
2013-04-07 11:26:00,67.4,51.2,29.96,SW,236,3.0,9.0,56,0.00,,,0.00,Wunderground v.1.15,2013-04-07 15:26:00,
2013-04-07 11:27:00,67.5,51.2,29.96,WSW,243,4.0,9.0,56,0.00,,,0.00,Wunderground v.1.15,2013-04-07 15:27:00,
2013-04-07 11:30:00,67.7,51.9,29.96,West,262,6.0,14.0,57,0.00,,,0.00,Wunderground v.1.15,2013-04-07 15:30:00,
2013-04-07 11:31:00,67.7,49.9,29.96,WSW,255,6.0,14.0,53,0.00,,,0.00,Wunderground v.1.15,2013-04-07 15:31:00,
2013-04-07 11:32:00,67.7,49.9,29.96,WSW,251,6.0,14.0,53,0.00,,,0.00,Wunderground v.1.15,2013-04-07 15:32:00,
2013-04-07 11:35:00,67.7,50.9,29.96,SW,222,12.0,16.0,55,0.00,,,0.00,Wunderground v.1.15,2013-04-07 15:35:00,
2013-04-07 11:37:00,67.6,50.4,29.96,SW,232,5.0,16.0,54,0.00,,,0.00,Wunderground v.1.15,2013-04-07 15:37:00,
2013-04-07 11:40:00,67.7,50.9,29.96,WSW,241,3.0,8.0,55,0.00,,,0.00,Wunderground v.1.15,2013-04-07 15:40:00,
2013-04-07 11:42:00,67.9,51.1,29.96,West,259,4.0,10.0,55,0.00,,,0.00,Wunderground v.1.15,2013-04-07 15:42:00,
2013-04-07 11:43:00,68.0,51.2,29.97,WSW,246,3.0,10.0,55,0.00,,,0.00,Wunderground v.1.15,2013-04-07 15:43:00,
2013-04-07 11:45:00,68.1,50.8,29.97,WSW,253,5.0,10.0,54,0.00,,,0.00,Wunderground v.1.15,2013-04-07 15:45:00,
2013-04-07 11:47:00,68.1,51.8,29.97,West,281,7.0,11.0,56,0.00,,,0.00,Wunderground v.1.15,2013-04-07 15:47:00,
2013-04-07 11:48:00,68.2,51.9,29.97,WNW,283,5.0,11.0,56,0.00,,,0.00,Wunderground v.1.15,2013-04-07 15:48:00,
2013-04-07 11:50:00,68.3,51.5,29.97,WSW,241,4.0,6.0,55,0.00,,,0.00,Wunderground v.1.15,2013-04-07 15:50:00,
2013-04-07 11:52:00,68.5,52.2,29.97,West,265,8.0,12.0,56,0.00,,,0.00,Wunderground v.1.15,2013-04-07 15:52:00,
2013-04-07 11:53:00,68.6,51.8,29.97,South,188,7.0,12.0,55,0.00,,,0.00,Wunderground v.1.15,2013-04-07 15:53:00,
2013-04-07 11:55:00,68.5,51.2,29.97,SW,221,8.0,15.0,54,0.00,,,0.00,Wunderground v.1.15,2013-04-07 15:55:00,
2013-04-07 11:57:00,68.4,51.1,29.97,South,190,9.0,15.0,54,0.00,,,0.00,Wunderground v.1.15,2013-04-07 15:57:00,
2013-04-07 11:58:00,68.4,51.6,29.97,WSW,255,7.0,15.0,55,0.00,,,0.00,Wunderground v.1.15,2013-04-07 15:58:00,
2013-04-07 11:59:00,68.3,51.5,29.97,SW,230,12.0,16.0,55,0.00,,,0.00,Wunderground v.1.15,2013-04-07 15:59:00,
2013-04-07 12:01:00,68.1,51.3,29.97,SW,215,10.0,12.0,55,0.00,,,0.00,Wunderground v.1.15,2013-04-07 16:01:00,
2013-04-07 12:03:00,68.0,51.7,29.97,SW,233,10.0,13.0,56,0.00,,,0.00,Wunderground v.1.15,2013-04-07 16:03:00,
2013-04-07 12:04:00,68.0,51.7,29.97,WSW,241,11.0,13.0,56,0.00,,,0.00,Wunderground v.1.15,2013-04-07 16:04:00,
2013-04-07 12:07:00,67.9,51.6,29.97,WSW,251,5.0,13.0,56,0.00,,,0.00,Wunderground v.1.15,2013-04-07 16:07:00,
2013-04-07 12:08:00,68.0,52.2,29.97,SSW,209,11.0,16.0,57,0.00,,,0.00,Wunderground v.1.15,2013-04-07 16:08:00,
2013-04-07 12:10:00,68.0,51.2,29.97,WSW,240,6.0,16.0,55,0.00,,,0.00,Wunderground v.1.15,2013-04-07 16:10:00,
2013-04-07 12:12:00,68.1,51.8,29.97,SW,234,12.0,12.0,56,0.00,,,0.00,Wunderground v.1.15,2013-04-07 16:12:00,
2013-04-07 12:13:00,68.1,50.8,29.97,West,272,9.0,14.0,54,0.00,,,0.00,Wunderground v.1.15,2013-04-07 16:13:00,
2013-04-07 12:14:00,68.1,51.8,29.97,WSW,244,4.0,14.0,56,0.00,,,0.00,Wunderground v.1.15,2013-04-07 16:14:00,
2013-04-07 12:16:00,68.0,51.7,29.97,SW,232,6.0,14.0,56,0.00,,,0.00,Wunderground v.1.15,2013-04-07 16:16:00,
2013-04-07 12:17:00,68.0,51.2,29.97,WSW,253,11.0,14.0,55,0.00,,,0.00,Wunderground v.1.15,2013-04-07 16:17:00,
2013-04-07 12:18:00,67.9,51.6,29.97,WSW,237,5.0,14.0,56,0.00,,,0.00,Wunderground v.1.15,2013-04-07 16:18:00,
2013-04-07 12:19:00,67.9,51.1,29.97,West,269,9.0,14.0,55,0.00,,,0.00,Wunderground v.1.15,2013-04-07 16:19:00,
2013-04-07 12:21:00,67.9,51.1,29.97,SW,236,9.0,13.0,55,0.00,,,0.00,Wunderground v.1.15,2013-04-07 16:21:00,
2013-04-07 12:22:00,67.9,51.1,29.97,SW,225,10.0,15.0,55,0.00,,,0.00,Wunderground v.1.15,2013-04-07 16:22:00,
2013-04-07 12:23:00,68.0,51.7,29.97,SW,222,14.0,15.0,56,0.00,,,0.00,Wunderground v.1.15,2013-04-07 16:23:00,
2013-04-07 12:24:00,68.0,51.2,29.97,SW,217,15.0,16.0,55,0.00,,,0.00,Wunderground v.1.15,2013-04-07 16:24:00,
2013-04-07 12:26:00,68.0,51.2,29.97,SW,232,7.0,16.0,55,0.00,,,0.00,Wunderground v.1.15,2013-04-07 16:26:00,
2013-04-07 12:27:00,68.0,51.2,29.97,SSW,211,9.0,16.0,55,0.00,,,0.00,Wunderground v.1.15,2013-04-07 16:27:00,
2013-04-07 12:29:00,67.9,51.1,29.97,SW,220,4.0,16.0,55,0.00,,,0.00,Wunderground v.1.15,2013-04-07 16:29:00,
2013-04-07 12:30:00,67.9,51.1,29.97,West,267,9.0,16.0,55,0.00,,,0.00,Wunderground v.1.15,2013-04-07 16:30:00,
2013-04-07 12:31:00,67.8,51.0,29.97,West,267,9.0,9.0,55,0.00,,,0.00,Wunderground v.1.15,2013-04-07 16:31:00,
2013-04-07 12:33:00,67.7,50.9,29.97,West,274,4.0,12.0,55,0.00,,,0.00,Wunderground v.1.15,2013-04-07 16:33:00,
2013-04-07 12:34:00,67.6,51.3,29.97,WSW,238,10.0,12.0,56,0.00,,,0.00,Wunderground v.1.15,2013-04-07 16:34:00,
2013-04-07 12:35:00,67.5,51.2,29.97,West,259,13.0,13.0,56,0.00,,,0.00,Wunderground v.1.15,2013-04-07 16:35:00,
2013-04-07 12:37:00,67.4,51.2,29.97,WSW,246,6.0,15.0,56,0.00,,,0.00,Wunderground v.1.15,2013-04-07 16:37:00,
2013-04-07 12:38:00,67.4,51.6,29.97,West,275,5.0,15.0,57,0.00,,,0.00,Wunderground v.1.15,2013-04-07 16:38:00,
2013-04-07 12:39:00,67.6,51.3,29.97,WSW,247,10.0,15.0,56,0.00,,,0.00,Wunderground v.1.15,2013-04-07 16:39:00,
2013-04-07 12:40:00,67.6,51.8,29.97,WSW,243,12.0,15.0,57,0.00,,,0.00,Wunderground v.1.15,2013-04-07 16:40:00,
2013-04-07 12:42:00,68.0,51.7,29.97,WSW,244,8.0,12.0,56,0.00,,,0.00,Wunderground v.1.15,2013-04-07 16:42:00,
2013-04-07 12:43:00,68.2,51.4,29.97,SW,228,12.0,12.0,55,0.00,,,0.00,Wunderground v.1.15,2013-04-07 16:43:00,
2013-04-07 12:44:00,68.4,51.6,29.97,West,272,7.0,12.0,55,0.00,,,0.00,Wunderground v.1.15,2013-04-07 16:44:00,
2013-04-07 12:45:00,68.4,51.6,29.97,West,267,8.0,12.0,55,0.00,,,0.00,Wunderground v.1.15,2013-04-07 16:45:00,
2013-04-07 12:48:00,68.7,51.9,29.96,WSW,255,8.0,15.0,55,0.00,,,0.00,Wunderground v.1.15,2013-04-07 16:48:00,
2013-04-07 12:50:00,68.8,52.9,29.96,SW,228,3.0,15.0,57,0.00,,,0.00,Wunderground v.1.15,2013-04-07 16:50:00,
2013-04-07 12:54:00,69.5,53.1,29.96,WNW,282,6.0,15.0,56,0.00,,,0.00,Wunderground v.1.15,2013-04-07 16:54:00,
2013-04-07 12:55:00,69.6,53.2,29.96,West,269,15.0,15.0,56,0.00,,,0.00,Wunderground v.1.15,2013-04-07 16:55:00,
2013-04-07 13:00:00,69.7,52.8,29.96,SW,219,14.0,15.0,55,0.00,,,0.00,Wunderground v.1.15,2013-04-07 17:00:00,
2013-04-07 13:01:00,69.7,52.3,29.96,SW,218,5.0,16.0,54,0.00,,,0.00,Wunderground v.1.15,2013-04-07 17:01:00,
2013-04-07 13:05:00,69.6,52.2,29.96,West,280,6.0,16.0,54,0.00,,,0.00,Wunderground v.1.15,2013-04-07 17:05:00,
2013-04-07 13:06:00,69.6,52.7,29.96,West,274,6.0,16.0,55,0.00,,,0.00,Wunderground v.1.15,2013-04-07 17:06:00,
2013-04-07 13:10:00,69.5,53.1,29.96,WSW,251,7.0,16.0,56,0.00,,,0.00,Wunderground v.1.15,2013-04-07 17:10:00,
2013-04-07 13:12:00,69.6,52.2,29.96,West,265,6.0,11.0,54,0.00,,,0.00,Wunderground v.1.15,2013-04-07 17:12:00,
2013-04-07 13:15:00,69.5,52.1,29.96,WNW,283,7.0,13.0,54,0.00,,,0.00,Wunderground v.1.15,2013-04-07 17:15:00,
2013-04-07 13:17:00,69.5,52.6,29.96,West,266,5.0,13.0,55,0.00,,,0.00,Wunderground v.1.15,2013-04-07 17:17:00,
2013-04-07 13:20:00,69.5,52.6,29.95,WSW,240,4.0,8.0,55,0.00,,,0.00,Wunderground v.1.15,2013-04-07 17:20:00,
2013-04-07 13:22:00,69.6,53.2,29.96,WNW,295,7.0,10.0,56,0.00,,,0.00,Wunderground v.1.15,2013-04-07 17:22:00,
2013-04-07 13:25:00,70.1,53.2,29.96,WSW,247,0.0,10.0,55,0.00,,,0.00,Wunderground v.1.15,2013-04-07 17:25:00,
2013-04-07 13:26:00,70.2,53.8,29.95,WSW,246,0.0,10.0,56,0.00,,,0.00,Wunderground v.1.15,2013-04-07 17:26:00,
2013-04-07 13:27:00,70.5,53.6,29.95,WNW,302,9.0,11.0,55,0.00,,,0.00,Wunderground v.1.15,2013-04-07 17:27:00,
2013-04-07 13:31:00,71.1,53.6,29.95,SW,221,11.0,14.0,54,0.00,,,0.00,Wunderground v.1.15,2013-04-07 17:31:00,
2013-04-07 13:32:00,71.3,53.8,29.95,SW,226,13.0,17.0,54,0.00,,,0.00,Wunderground v.1.15,2013-04-07 17:32:00,
2013-04-07 13:36:00,71.6,53.6,29.95,WSW,251,4.0,17.0,53,0.00,,,0.00,Wunderground v.1.15,2013-04-07 17:36:00,
2013-04-07 13:37:00,71.6,53.6,29.95,West,269,7.0,17.0,53,0.00,,,0.00,Wunderground v.1.15,2013-04-07 17:37:00,
2013-04-07 13:41:00,71.3,54.3,29.95,WNW,292,7.0,11.0,55,0.00,,,0.00,Wunderground v.1.15,2013-04-07 17:41:00,
2013-04-07 13:42:00,71.2,53.7,29.95,WSW,257,16.0,16.0,54,0.00,,,0.00,Wunderground v.1.15,2013-04-07 17:42:00,
2013-04-07 13:43:00,71.0,52.5,29.95,WSW,256,13.0,16.0,52,0.00,,,0.00,Wunderground v.1.15,2013-04-07 17:43:00,
2013-04-07 13:46:00,70.7,53.7,29.95,WSW,255,6.0,16.0,55,0.00,,,0.00,Wunderground v.1.15,2013-04-07 17:46:00,
2013-04-07 13:47:00,70.7,53.7,29.95,SSW,205,6.0,16.0,55,0.00,,,0.00,Wunderground v.1.15,2013-04-07 17:47:00,
2013-04-07 13:48:00,70.7,53.2,29.95,SW,225,6.0,16.0,54,0.00,,,0.00,Wunderground v.1.15,2013-04-07 17:48:00,
2013-04-07 13:52:00,71.5,53.5,29.95,West,263,9.0,18.0,53,0.00,,,0.00,Wunderground v.1.15,2013-04-07 17:52:00,
2013-04-07 13:53:00,71.6,53.0,29.95,SW,234,12.0,18.0,52,0.00,,,0.00,Wunderground v.1.15,2013-04-07 17:53:00,
2013-04-07 13:57:00,71.8,54.3,29.95,WNW,282,6.0,18.0,54,0.00,,,0.00,Wunderground v.1.15,2013-04-07 17:57:00,
2013-04-07 13:58:00,71.9,54.3,29.95,West,260,11.0,18.0,54,0.00,,,0.00,Wunderground v.1.15,2013-04-07 17:58:00,
2013-04-07 13:59:00,72.1,54.0,29.95,West,261,11.0,18.0,53,0.00,,,0.00,Wunderground v.1.15,2013-04-07 17:59:00,
2013-04-07 14:02:00,72.2,54.1,29.95,WSW,241,10.0,14.0,53,0.00,,,0.00,Wunderground v.1.15,2013-04-07 18:02:00,
2013-04-07 14:03:00,72.2,54.1,29.95,West,281,4.0,14.0,53,0.00,,,0.00,Wunderground v.1.15,2013-04-07 18:03:00,
2013-04-07 14:04:00,72.2,54.1,29.95,WSW,251,6.0,14.0,53,0.00,,,0.00,Wunderground v.1.15,2013-04-07 18:04:00,
2013-04-07 14:05:00,72.2,54.1,29.95,West,269,8.0,14.0,53,0.00,,,0.00,Wunderground v.1.15,2013-04-07 18:05:00,
2013-04-07 14:07:00,72.1,55.5,29.95,WSW,257,5.0,14.0,56,0.00,,,0.00,Wunderground v.1.15,2013-04-07 18:07:00,
2013-04-07 14:08:00,72.1,54.5,29.95,West,270,10.0,14.0,54,0.00,,,0.00,Wunderground v.1.15,2013-04-07 18:08:00,
2013-04-07 14:09:00,72.1,54.5,29.95,WSW,255,6.0,14.0,54,0.00,,,0.00,Wunderground v.1.15,2013-04-07 18:09:00,
2013-04-07 14:10:00,72.0,54.4,29.95,West,268,4.0,14.0,54,0.00,,,0.00,Wunderground v.1.15,2013-04-07 18:10:00,
2013-04-07 14:13:00,71.9,53.8,29.95,SW,234,11.0,14.0,53,0.00,,,0.00,Wunderground v.1.15,2013-04-07 18:13:00,
2013-04-07 14:14:00,72.0,55.4,29.95,West,265,11.0,14.0,56,0.00,,,0.00,Wunderground v.1.15,2013-04-07 18:14:00,
2013-04-07 14:15:00,72.0,53.9,29.95,WNW,290,5.0,14.0,53,0.00,,,0.00,Wunderground v.1.15,2013-04-07 18:15:00,
2013-04-07 14:20:00,72.1,54.5,29.95,WSW,258,4.0,14.0,54,0.00,,,0.00,Wunderground v.1.15,2013-04-07 18:20:00,
2013-04-07 14:25:00,72.6,54.5,29.94,SSW,209,6.0,13.0,53,0.00,,,0.00,Wunderground v.1.15,2013-04-07 18:25:00,
2013-04-07 14:26:00,72.6,54.5,29.94,South,184,13.0,16.0,53,0.00,,,0.00,Wunderground v.1.15,2013-04-07 18:26:00,
2013-04-07 14:30:00,72.4,54.3,29.94,WSW,243,4.0,18.0,53,0.00,,,0.00,Wunderground v.1.15,2013-04-07 18:30:00,
2013-04-07 14:31:00,72.4,54.3,29.94,West,271,3.0,9.0,53,0.00,,,0.00,Wunderground v.1.15,2013-04-07 18:31:00,
2013-04-07 14:35:00,72.8,55.2,29.94,SW,214,11.0,16.0,54,0.00,,,0.00,Wunderground v.1.15,2013-04-07 18:35:00,
2013-04-07 14:36:00,72.9,55.3,29.94,SW,227,16.0,19.0,54,0.00,,,0.00,Wunderground v.1.15,2013-04-07 18:36:00,
2013-04-07 14:40:00,73.6,55.4,29.94,SW,226,9.0,19.0,53,0.00,,,0.00,Wunderground v.1.15,2013-04-07 18:40:00,
2013-04-07 14:41:00,73.7,55.5,29.94,South,188,15.0,16.0,53,0.00,,,0.00,Wunderground v.1.15,2013-04-07 18:41:00,
2013-04-07 14:42:00,73.8,55.6,29.95,WSW,240,9.0,16.0,53,0.00,,,0.00,Wunderground v.1.15,2013-04-07 18:42:00,
2013-04-07 14:45:00,73.8,54.5,29.95,SW,231,14.0,19.0,51,0.00,,,0.00,Wunderground v.1.15,2013-04-07 18:45:00,
2013-04-07 14:46:00,73.8,54.5,29.95,WSW,249,14.0,19.0,51,0.00,,,0.00,Wunderground v.1.15,2013-04-07 18:46:00,
2013-04-07 14:47:00,73.4,55.2,29.95,WSW,255,9.0,19.0,53,0.00,,,0.00,Wunderground v.1.15,2013-04-07 18:47:00,
2013-04-07 14:51:00,72.3,54.2,29.94,South,188,10.0,15.0,53,0.00,,,0.00,Wunderground v.1.15,2013-04-07 18:51:00,
2013-04-07 14:52:00,72.0,54.9,29.95,WSW,240,16.0,16.0,55,0.00,,,0.00,Wunderground v.1.15,2013-04-07 18:52:00,
2013-04-07 14:56:00,71.7,54.7,29.95,WSW,240,6.0,17.0,55,0.00,,,0.00,Wunderground v.1.15,2013-04-07 18:56:00,
2013-04-07 14:57:00,71.6,54.6,29.95,WSW,246,11.0,17.0,55,0.00,,,0.00,Wunderground v.1.15,2013-04-07 18:57:00,
2013-04-07 14:58:00,71.5,55.0,29.95,South,180,3.0,17.0,56,0.00,,,0.00,Wunderground v.1.15,2013-04-07 18:58:00,
2013-04-07 15:01:00,71.9,55.3,29.95,SW,226,7.0,9.0,56,0.00,,,0.00,Wunderground v.1.15,2013-04-07 19:01:00,
2013-04-07 15:02:00,72.0,55.4,29.95,SW,229,8.0,9.0,56,0.00,,,0.00,Wunderground v.1.15,2013-04-07 19:02:00,
2013-04-07 15:03:00,72.1,55.5,29.95,South,169,3.0,11.0,56,0.00,,,0.00,Wunderground v.1.15,2013-04-07 19:03:00,
2013-04-07 15:06:00,72.4,55.8,29.94,WSW,246,10.0,18.0,56,0.00,,,0.00,Wunderground v.1.15,2013-04-07 19:06:00,
2013-04-07 15:07:00,72.4,55.8,29.94,WSW,257,11.0,18.0,56,0.00,,,0.00,Wunderground v.1.15,2013-04-07 19:07:00,
2013-04-07 15:08:00,72.5,54.9,29.95,SSW,209,11.0,18.0,54,0.00,,,0.00,Wunderground v.1.15,2013-04-07 19:08:00,
2013-04-07 15:12:00,72.2,55.1,29.94,SW,228,9.0,10.0,55,0.00,,,0.00,Wunderground v.1.15,2013-04-07 19:12:00,
2013-04-07 15:13:00,72.1,55.0,29.95,SW,219,4.0,11.0,55,0.00,,,0.00,Wunderground v.1.15,2013-04-07 19:13:00,
2013-04-07 15:14:00,72.0,54.9,29.94,SW,229,14.0,14.0,55,0.00,,,0.00,Wunderground v.1.15,2013-04-07 19:14:00,
2013-04-07 15:17:00,71.4,54.9,29.95,WSW,245,7.0,14.0,56,0.00,,,0.00,Wunderground v.1.15,2013-04-07 19:17:00,
2013-04-07 15:18:00,71.3,54.8,29.95,WSW,252,9.0,14.0,56,0.00,,,0.00,Wunderground v.1.15,2013-04-07 19:18:00,
2013-04-07 15:19:00,71.3,54.8,29.95,SW,226,6.0,14.0,56,0.00,,,0.00,Wunderground v.1.15,2013-04-07 19:19:00,
2013-04-07 15:22:00,71.6,55.6,29.94,WSW,256,10.0,13.0,57,0.00,,,0.00,Wunderground v.1.15,2013-04-07 19:22:00,
2013-04-07 15:23:00,71.9,55.3,29.95,West,265,13.0,13.0,56,0.00,,,0.00,Wunderground v.1.15,2013-04-07 19:23:00,
2013-04-07 15:25:00,72.1,55.5,29.95,West,259,11.0,14.0,56,0.00,,,0.00,Wunderground v.1.15,2013-04-07 19:25:00,
2013-04-07 15:27:00,72.4,56.8,29.94,West,259,4.0,14.0,58,0.00,,,0.00,Wunderground v.1.15,2013-04-07 19:27:00,
2013-04-07 15:29:00,72.6,56.5,29.94,SW,222,7.0,14.0,57,0.00,,,0.00,Wunderground v.1.15,2013-04-07 19:29:00,
2013-04-07 15:30:00,72.8,55.7,29.95,SW,221,13.0,14.0,55,0.00,,,0.00,Wunderground v.1.15,2013-04-07 19:30:00,
2013-04-07 15:32:00,72.8,55.7,29.95,WSW,249,15.0,15.0,55,0.00,,,0.00,Wunderground v.1.15,2013-04-07 19:32:00,
2013-04-07 15:34:00,72.4,55.3,29.94,WSW,241,7.0,15.0,55,0.00,,,0.00,Wunderground v.1.15,2013-04-07 19:34:00,
2013-04-07 15:35:00,72.3,55.2,29.95,SSW,210,9.0,15.0,55,0.00,,,0.00,Wunderground v.1.15,2013-04-07 19:35:00,
2013-04-07 15:37:00,72.1,55.0,29.94,SE,132,12.0,15.0,55,0.00,,,0.00,Wunderground v.1.15,2013-04-07 19:37:00,
2013-04-07 15:40:00,71.8,54.8,29.94,SSW,205,8.0,15.0,55,0.00,,,0.00,Wunderground v.1.15,2013-04-07 19:40:00,
2013-04-07 15:42:00,71.7,55.2,29.94,WSW,251,12.0,12.0,56,0.00,,,0.00,Wunderground v.1.15,2013-04-07 19:42:00,
2013-04-07 15:45:00,71.6,55.1,29.94,SSW,209,11.0,16.0,56,0.00,,,0.00,Wunderground v.1.15,2013-04-07 19:45:00,
2013-04-07 15:48:00,71.7,55.2,29.94,SW,234,10.0,16.0,56,0.00,,,0.00,Wunderground v.1.15,2013-04-07 19:48:00,
2013-04-07 15:49:00,71.7,55.2,29.94,SW,226,9.0,16.0,56,0.00,,,0.00,Wunderground v.1.15,2013-04-07 19:49:00,
2013-04-07 15:51:00,71.8,54.8,29.94,SSW,200,5.0,11.0,55,0.00,,,0.00,Wunderground v.1.15,2013-04-07 19:51:00,
2013-04-07 15:53:00,71.9,54.9,29.94,SW,215,6.0,12.0,55,0.00,,,0.00,Wunderground v.1.15,2013-04-07 19:53:00,
2013-04-07 15:54:00,71.9,55.3,29.94,SW,217,16.0,16.0,56,0.00,,,0.00,Wunderground v.1.15,2013-04-07 19:54:00,
2013-04-07 15:56:00,71.7,54.7,29.94,WSW,244,6.0,16.0,55,0.00,,,0.00,Wunderground v.1.15,2013-04-07 19:56:00,
2013-04-07 15:57:00,71.7,54.7,29.94,SW,232,10.0,16.0,55,0.00,,,0.00,Wunderground v.1.15,2013-04-07 19:57:00,
2013-04-07 15:58:00,71.6,54.6,29.94,SW,224,12.0,16.0,55,0.00,,,0.00,Wunderground v.1.15,2013-04-07 19:58:00,
2013-04-07 15:59:00,71.4,54.9,29.94,West,270,10.0,16.0,56,0.00,,,0.00,Wunderground v.1.15,2013-04-07 19:59:00,
2013-04-07 16:02:00,71.3,54.8,29.94,West,263,5.0,13.0,56,0.00,,,0.00,Wunderground v.1.15,2013-04-07 20:02:00,
2013-04-07 16:03:00,71.3,54.8,29.94,West,271,4.0,13.0,56,0.00,,,0.00,Wunderground v.1.15,2013-04-07 20:03:00,
2013-04-07 16:05:00,71.2,54.7,29.94,WSW,237,13.0,19.0,56,0.00,,,0.00,Wunderground v.1.15,2013-04-07 20:05:00,
2013-04-07 16:07:00,71.2,55.2,29.94,SW,230,15.0,19.0,57,0.00,,,0.00,Wunderground v.1.15,2013-04-07 20:07:00,
2013-04-07 16:09:00,71.2,54.7,29.94,SW,232,10.0,19.0,56,0.00,,,0.00,Wunderground v.1.15,2013-04-07 20:09:00,
2013-04-07 16:10:00,71.2,54.7,29.94,SW,230,12.0,13.0,56,0.00,,,0.00,Wunderground v.1.15,2013-04-07 20:10:00,
2013-04-07 16:12:00,71.2,54.7,29.94,SW,228,4.0,16.0,56,0.00,,,0.00,Wunderground v.1.15,2013-04-07 20:12:00,
2013-04-07 16:13:00,71.3,54.8,29.94,West,280,9.0,16.0,56,0.00,,,0.00,Wunderground v.1.15,2013-04-07 20:13:00,
2013-04-07 16:15:00,71.4,55.4,29.94,WSW,241,5.0,16.0,57,0.00,,,0.00,Wunderground v.1.15,2013-04-07 20:15:00,
2013-04-07 16:16:00,71.5,55.5,29.94,West,274,7.0,16.0,57,0.00,,,0.00,Wunderground v.1.15,2013-04-07 20:16:00,
2013-04-07 16:18:00,71.7,55.2,29.94,SW,231,6.0,16.0,56,0.00,,,0.00,Wunderground v.1.15,2013-04-07 20:18:00,
2013-04-07 16:20:00,71.9,54.9,29.94,WNW,288,1.0,16.0,55,0.00,,,0.00,Wunderground v.1.15,2013-04-07 20:20:00,
2013-04-07 16:22:00,72.1,55.0,29.94,WSW,246,9.0,9.0,55,0.00,,,0.00,Wunderground v.1.15,2013-04-07 20:22:00,
2013-04-07 16:23:00,72.2,55.1,29.94,West,272,14.0,14.0,55,0.00,,,0.00,Wunderground v.1.15,2013-04-07 20:23:00,
2013-04-07 16:25:00,72.3,55.2,29.94,WSW,255,6.0,15.0,55,0.00,,,0.00,Wunderground v.1.15,2013-04-07 20:25:00,
2013-04-07 16:27:00,72.2,55.1,29.94,SW,224,6.0,15.0,55,0.00,,,0.00,Wunderground v.1.15,2013-04-07 20:27:00,
2013-04-07 16:28:00,71.9,54.9,29.94,WSW,247,10.0,15.0,55,0.00,,,0.00,Wunderground v.1.15,2013-04-07 20:28:00,
2013-04-07 16:29:00,71.8,54.8,29.94,SSW,195,5.0,15.0,55,0.00,,,0.00,Wunderground v.1.15,2013-04-07 20:29:00,
2013-04-07 16:30:00,71.7,55.2,29.94,SSW,205,9.0,11.0,56,0.00,,,0.00,Wunderground v.1.15,2013-04-07 20:30:00,
2013-04-07 16:32:00,71.6,54.6,29.94,SW,228,10.0,14.0,55,0.00,,,0.00,Wunderground v.1.15,2013-04-07 20:32:00,
2013-04-07 16:33:00,71.5,54.5,29.94,SW,236,4.0,14.0,55,0.00,,,0.00,Wunderground v.1.15,2013-04-07 20:33:00,
2013-04-07 16:34:00,71.4,54.9,29.93,WSW,238,5.0,14.0,56,0.00,,,0.00,Wunderground v.1.15,2013-04-07 20:34:00,
2013-04-07 16:35:00,71.4,55.4,29.94,WSW,253,9.0,14.0,57,0.00,,,0.00,Wunderground v.1.15,2013-04-07 20:35:00,
2013-04-07 16:37:00,71.3,55.3,29.94,SW,216,6.0,14.0,57,0.00,,,0.00,Wunderground v.1.15,2013-04-07 20:37:00,
2013-04-07 16:39:00,71.4,54.9,29.94,West,269,4.0,14.0,56,0.00,,,0.00,Wunderground v.1.15,2013-04-07 20:39:00,
2013-04-07 16:40:00,71.5,55.5,29.94,WSW,242,7.0,14.0,57,0.00,,,0.00,Wunderground v.1.15,2013-04-07 20:40:00,
2013-04-07 16:41:00,71.5,55.0,29.94,SSW,195,5.0,7.0,56,0.00,,,0.00,Wunderground v.1.15,2013-04-07 20:41:00,
2013-04-07 16:42:00,71.7,56.1,29.94,SW,222,17.0,17.0,58,0.00,,,0.00,Wunderground v.1.15,2013-04-07 20:42:00,
2013-04-07 16:45:00,71.8,55.3,29.93,WSW,244,5.0,17.0,56,0.00,,,0.00,Wunderground v.1.15,2013-04-07 20:45:00,
2013-04-07 16:46:00,71.9,55.3,29.94,WSW,257,4.0,17.0,56,0.00,,,0.00,Wunderground v.1.15,2013-04-07 20:46:00,
2013-04-07 16:48:00,71.8,54.8,29.93,SW,225,5.0,17.0,55,0.00,,,0.00,Wunderground v.1.15,2013-04-07 20:48:00,
2013-04-07 16:50:00,71.7,55.2,29.93,WSW,251,4.0,17.0,56,0.00,,,0.00,Wunderground v.1.15,2013-04-07 20:50:00,
2013-04-07 16:51:00,71.7,54.7,29.93,WSW,238,6.0,8.0,55,0.00,,,0.00,Wunderground v.1.15,2013-04-07 20:51:00,
2013-04-07 16:53:00,71.7,54.7,29.93,West,267,3.0,12.0,55,0.00,,,0.00,Wunderground v.1.15,2013-04-07 20:53:00,
2013-04-07 16:55:00,71.7,55.2,29.93,South,185,5.0,12.0,56,0.00,,,0.00,Wunderground v.1.15,2013-04-07 20:55:00,
2013-04-07 16:56:00,71.7,56.1,29.93,WSW,252,1.0,12.0,58,0.00,,,0.00,Wunderground v.1.15,2013-04-07 20:56:00,
2013-04-07 16:59:00,71.9,55.3,29.93,South,175,9.0,14.0,56,0.00,,,0.00,Wunderground v.1.15,2013-04-07 20:59:00,
2013-04-07 17:00:00,72.0,55.9,29.93,SW,222,5.0,7.0,57,0.00,,,0.00,Wunderground v.1.15,2013-04-07 21:00:00,
2013-04-07 17:02:00,72.3,55.7,29.93,SW,215,8.0,15.0,56,0.00,,,0.00,Wunderground v.1.15,2013-04-07 21:02:00,
2013-04-07 17:04:00,72.9,56.3,29.93,SSW,200,9.0,15.0,56,0.00,,,0.00,Wunderground v.1.15,2013-04-07 21:04:00,
2013-04-07 17:05:00,73.1,57.0,29.93,SW,230,3.0,15.0,57,0.00,,,0.00,Wunderground v.1.15,2013-04-07 21:05:00,
2013-04-07 17:06:00,73.2,57.1,29.93,SW,222,5.0,15.0,57,0.00,,,0.00,Wunderground v.1.15,2013-04-07 21:06:00,
2013-04-07 17:07:00,73.5,56.8,29.93,SW,217,0.0,15.0,56,0.00,,,0.00,Wunderground v.1.15,2013-04-07 21:07:00,
2013-04-07 17:10:00,73.9,56.2,29.93,SW,234,9.0,15.0,54,0.00,,,0.00,Wunderground v.1.15,2013-04-07 21:10:00,
2013-04-07 17:12:00,73.7,56.0,29.93,SSW,210,2.0,7.0,54,0.00,,,0.00,Wunderground v.1.15,2013-04-07 21:12:00,
2013-04-07 17:15:00,73.6,56.4,29.93,SSW,213,2.0,9.0,55,0.00,,,0.00,Wunderground v.1.15,2013-04-07 21:15:00,
2013-04-07 17:18:00,73.4,56.2,29.93,WSW,238,6.0,12.0,55,0.00,,,0.00,Wunderground v.1.15,2013-04-07 21:18:00,
2013-04-07 17:20:00,73.2,56.6,29.93,SSW,200,0.0,6.0,56,0.00,,,0.00,Wunderground v.1.15,2013-04-07 21:20:00,
2013-04-07 17:21:00,73.2,56.1,29.93,SW,233,3.0,6.0,55,0.00,,,0.00,Wunderground v.1.15,2013-04-07 21:21:00,
2013-04-07 17:23:00,73.0,56.4,29.93,SW,234,3.0,6.0,56,0.00,,,0.00,Wunderground v.1.15,2013-04-07 21:23:00,
2013-04-07 17:26:00,72.8,56.7,29.93,SSW,195,7.0,10.0,57,0.00,,,0.00,Wunderground v.1.15,2013-04-07 21:26:00,
2013-04-07 17:27:00,72.8,56.2,29.93,WSW,253,3.0,10.0,56,0.00,,,0.00,Wunderground v.1.15,2013-04-07 21:27:00,
2013-04-07 17:28:00,72.8,56.2,29.93,WSW,239,6.0,12.0,56,0.00,,,0.00,Wunderground v.1.15,2013-04-07 21:28:00,
2013-04-07 17:32:00,72.6,56.0,29.93,WSW,250,9.0,12.0,56,0.00,,,0.00,Wunderground v.1.15,2013-04-07 21:32:00,
2013-04-07 17:33:00,72.5,55.9,29.93,WSW,256,13.0,13.0,56,0.00,,,0.00,Wunderground v.1.15,2013-04-07 21:33:00,
2013-04-07 17:37:00,72.2,56.1,29.93,SW,233,7.0,13.0,57,0.00,,,0.00,Wunderground v.1.15,2013-04-07 21:37:00,
2013-04-07 17:38:00,72.2,56.1,29.93,SW,228,3.0,13.0,57,0.00,,,0.00,Wunderground v.1.15,2013-04-07 21:38:00,
2013-04-07 17:42:00,71.9,55.3,29.93,SW,224,9.0,12.0,56,0.00,,,0.00,Wunderground v.1.15,2013-04-07 21:42:00,
2013-04-07 17:43:00,71.8,55.3,29.93,WSW,240,7.0,14.0,56,0.00,,,0.00,Wunderground v.1.15,2013-04-07 21:43:00,
2013-04-07 17:47:00,71.4,55.9,29.93,SW,229,10.0,14.0,58,0.00,,,0.00,Wunderground v.1.15,2013-04-07 21:47:00,
2013-04-07 17:49:00,71.3,55.8,29.93,WSW,256,6.0,14.0,58,0.00,,,0.00,Wunderground v.1.15,2013-04-07 21:49:00,
2013-04-07 17:52:00,71.0,55.9,29.93,WSW,242,7.0,9.0,59,0.00,,,0.00,Wunderground v.1.15,2013-04-07 21:52:00,
2013-04-07 17:53:00,71.0,55.9,29.93,WSW,244,10.0,10.0,59,0.00,,,0.00,Wunderground v.1.15,2013-04-07 21:53:00,
2013-04-07 17:54:00,70.9,55.4,29.94,South,178,7.0,10.0,58,0.00,,,0.00,Wunderground v.1.15,2013-04-07 21:54:00,
2013-04-07 17:55:00,70.8,55.3,29.93,SW,214,6.0,10.0,58,0.00,,,0.00,Wunderground v.1.15,2013-04-07 21:55:00,
2013-04-07 17:58:00,70.8,55.8,29.94,SW,226,3.0,10.0,59,0.00,,,0.00,Wunderground v.1.15,2013-04-07 21:58:00,
2013-04-07 17:59:00,70.7,55.7,29.93,SW,215,3.0,10.0,59,0.00,,,0.00,Wunderground v.1.15,2013-04-07 21:59:00,
2013-04-07 18:00:00,70.7,55.7,29.93,South,188,4.0,10.0,59,0.00,,,0.00,Wunderground v.1.15,2013-04-07 22:00:00,
2013-04-07 18:01:00,70.7,55.2,29.93,South,185,10.0,10.0,58,0.00,,,0.00,Wunderground v.1.15,2013-04-07 22:01:00,
2013-04-07 18:03:00,70.6,55.1,29.93,WSW,256,0.0,11.0,58,0.00,,,0.00,Wunderground v.1.15,2013-04-07 22:03:00,
2013-04-07 18:04:00,70.6,55.6,29.93,SW,233,2.0,11.0,59,0.00,,,0.00,Wunderground v.1.15,2013-04-07 22:04:00,
2013-04-07 18:05:00,70.6,55.6,29.93,SSE,147,5.0,11.0,59,0.00,,,0.00,Wunderground v.1.15,2013-04-07 22:05:00,
2013-04-07 18:07:00,70.5,55.5,29.93,SSW,205,1.0,11.0,59,0.00,,,0.00,Wunderground v.1.15,2013-04-07 22:07:00,
2013-04-07 18:08:00,70.5,55.5,29.93,WSW,247,10.0,11.0,59,0.00,,,0.00,Wunderground v.1.15,2013-04-07 22:08:00,
2013-04-07 18:10:00,70.5,55.0,29.93,SW,234,10.0,14.0,58,0.00,,,0.00,Wunderground v.1.15,2013-04-07 22:10:00,
2013-04-07 18:11:00,70.5,55.5,29.93,SW,214,7.0,13.0,59,0.00,,,0.00,Wunderground v.1.15,2013-04-07 22:11:00,
2013-04-07 18:12:00,70.4,55.4,29.93,SW,215,7.0,13.0,59,0.00,,,0.00,Wunderground v.1.15,2013-04-07 22:12:00,
2013-04-07 18:13:00,70.4,55.4,29.93,South,190,7.0,13.0,59,0.00,,,0.00,Wunderground v.1.15,2013-04-07 22:13:00,
2013-04-07 18:15:00,70.3,55.3,29.93,SSW,209,2.0,13.0,59,0.00,,,0.00,Wunderground v.1.15,2013-04-07 22:15:00,
2013-04-07 18:16:00,70.3,55.3,29.93,SW,218,14.0,14.0,59,0.00,,,0.00,Wunderground v.1.15,2013-04-07 22:16:00,
2013-04-07 18:17:00,70.3,55.3,29.93,SW,234,4.0,14.0,59,0.00,,,0.00,Wunderground v.1.15,2013-04-07 22:17:00,
2013-04-07 18:19:00,70.3,55.3,29.93,SW,218,2.0,14.0,59,0.00,,,0.00,Wunderground v.1.15,2013-04-07 22:19:00,
2013-04-07 18:22:00,70.2,55.2,29.93,SSW,211,6.0,13.0,59,0.00,,,0.00,Wunderground v.1.15,2013-04-07 22:22:00,
2013-04-07 18:24:00,70.2,55.2,29.93,SW,225,3.0,13.0,59,0.00,,,0.00,Wunderground v.1.15,2013-04-07 22:24:00,
2013-04-07 18:27:00,70.2,55.7,29.93,SW,219,10.0,13.0,60,0.00,,,0.00,Wunderground v.1.15,2013-04-07 22:27:00,
2013-04-07 18:29:00,70.2,55.7,29.93,SSW,200,5.0,13.0,60,0.00,,,0.00,Wunderground v.1.15,2013-04-07 22:29:00,
2013-04-07 18:32:00,70.3,55.3,29.93,SW,218,6.0,14.0,59,0.00,,,0.00,Wunderground v.1.15,2013-04-07 22:32:00,
2013-04-07 18:33:00,70.3,55.3,29.93,WSW,242,6.0,14.0,59,0.00,,,0.00,Wunderground v.1.15,2013-04-07 22:33:00,
2013-04-07 18:34:00,70.3,55.3,29.93,SSW,200,14.0,15.0,59,0.00,,,0.00,Wunderground v.1.15,2013-04-07 22:34:00,
2013-04-07 18:38:00,70.4,55.4,29.93,WSW,252,4.0,15.0,59,0.00,,,0.00,Wunderground v.1.15,2013-04-07 22:38:00,
2013-04-07 18:39:00,70.5,55.5,29.93,SSW,200,7.0,15.0,59,0.00,,,0.00,Wunderground v.1.15,2013-04-07 22:39:00,
2013-04-07 18:43:00,70.6,55.6,29.93,SW,232,2.0,6.0,59,0.00,,,0.00,Wunderground v.1.15,2013-04-07 22:43:00,
2013-04-07 18:44:00,70.7,55.7,29.93,SW,229,4.0,6.0,59,0.00,,,0.00,Wunderground v.1.15,2013-04-07 22:44:00,
2013-04-07 18:45:00,70.8,55.8,29.93,WSW,237,7.0,11.0,59,0.00,,,0.00,Wunderground v.1.15,2013-04-07 22:45:00,
2013-04-07 18:48:00,70.9,55.9,29.93,South,174,5.0,11.0,59,0.00,,,0.00,Wunderground v.1.15,2013-04-07 22:48:00,
2013-04-07 18:50:00,71.0,55.9,29.93,SSW,200,5.0,11.0,59,0.00,,,0.00,Wunderground v.1.15,2013-04-07 22:50:00,
2013-04-07 18:51:00,71.0,55.5,29.93,SW,215,0.0,4.0,58,0.00,,,0.00,Wunderground v.1.15,2013-04-07 22:51:00,
2013-04-07 18:53:00,71.0,55.5,29.93,SSW,200,6.0,7.0,58,0.00,,,0.00,Wunderground v.1.15,2013-04-07 22:53:00,
2013-04-07 18:55:00,71.0,55.5,29.93,South,186,6.0,11.0,58,0.00,,,0.00,Wunderground v.1.15,2013-04-07 22:55:00,
2013-04-07 18:56:00,71.0,55.5,29.93,WSW,242,6.0,11.0,58,0.00,,,0.00,Wunderground v.1.15,2013-04-07 22:56:00,
2013-04-07 18:58:00,70.9,55.4,29.93,SW,216,5.0,14.0,58,0.00,,,0.00,Wunderground v.1.15,2013-04-07 22:58:00,
2013-04-07 19:01:00,70.8,55.3,29.93,SSW,200,9.0,10.0,58,0.00,,,0.00,Wunderground v.1.15,2013-04-07 23:01:00,
2013-04-07 19:02:00,70.8,55.3,29.93,SW,217,6.0,10.0,58,0.00,,,0.00,Wunderground v.1.15,2013-04-07 23:02:00,
2013-04-07 19:03:00,70.7,55.2,29.93,SSW,205,4.0,10.0,58,0.00,,,0.00,Wunderground v.1.15,2013-04-07 23:03:00,
2013-04-07 19:06:00,70.5,55.5,29.93,SSW,205,6.0,12.0,59,0.00,,,0.00,Wunderground v.1.15,2013-04-07 23:06:00,
2013-04-07 19:07:00,70.5,55.5,29.93,WSW,256,10.0,12.0,59,0.00,,,0.00,Wunderground v.1.15,2013-04-07 23:07:00,
2013-04-07 19:08:00,70.4,55.4,29.93,South,186,5.0,12.0,59,0.00,,,0.00,Wunderground v.1.15,2013-04-07 23:08:00,
2013-04-07 19:09:00,70.4,55.4,29.93,South,184,1.0,12.0,59,0.00,,,0.00,Wunderground v.1.15,2013-04-07 23:09:00,
2013-04-07 19:12:00,70.3,55.3,29.93,South,187,1.0,7.0,59,0.00,,,0.00,Wunderground v.1.15,2013-04-07 23:12:00,
2013-04-07 19:13:00,70.2,55.2,29.93,South,188,4.0,7.0,59,0.00,,,0.00,Wunderground v.1.15,2013-04-07 23:13:00,
2013-04-07 19:14:00,70.1,55.1,29.93,SW,217,5.0,7.0,59,0.00,,,0.00,Wunderground v.1.15,2013-04-07 23:14:00,
2013-04-07 19:17:00,70.0,55.5,29.93,SSW,205,9.0,15.0,60,0.00,,,0.00,Wunderground v.1.15,2013-04-07 23:17:00,
2013-04-07 19:18:00,70.0,55.0,29.93,SSW,209,10.0,15.0,59,0.00,,,0.00,Wunderground v.1.15,2013-04-07 23:18:00,
2013-04-07 19:19:00,69.9,54.9,29.93,SSW,209,3.0,15.0,59,0.00,,,0.00,Wunderground v.1.15,2013-04-07 23:19:00,
2013-04-07 19:22:00,69.8,54.8,29.93,SW,218,4.0,10.0,59,0.00,,,0.00,Wunderground v.1.15,2013-04-07 23:22:00,
2013-04-07 19:23:00,69.8,54.8,29.93,SW,231,12.0,12.0,59,0.00,,,0.00,Wunderground v.1.15,2013-04-07 23:23:00,
2013-04-07 19:25:00,69.7,55.2,29.93,SW,219,3.0,12.0,60,0.00,,,0.00,Wunderground v.1.15,2013-04-07 23:25:00,
2013-04-07 19:27:00,69.7,55.2,29.93,South,191,3.0,12.0,60,0.00,,,0.00,Wunderground v.1.15,2013-04-07 23:27:00,
2013-04-07 19:28:00,69.6,55.1,29.93,South,184,3.0,12.0,60,0.00,,,0.00,Wunderground v.1.15,2013-04-07 23:28:00,
2013-04-07 19:30:00,69.6,55.1,29.93,SSW,200,5.0,12.0,60,0.00,,,0.00,Wunderground v.1.15,2013-04-07 23:30:00,
2013-04-07 19:33:00,69.5,55.0,29.93,SSW,205,4.0,6.0,60,0.00,,,0.00,Wunderground v.1.15,2013-04-07 23:33:00,
2013-04-07 19:34:00,69.4,54.9,29.93,SSW,200,4.0,9.0,60,0.00,,,0.00,Wunderground v.1.15,2013-04-07 23:34:00,
2013-04-07 19:35:00,69.4,54.9,29.93,South,170,9.0,10.0,60,0.00,,,0.00,Wunderground v.1.15,2013-04-07 23:35:00,
2013-04-07 19:38:00,69.3,54.8,29.93,SSW,209,7.0,10.0,60,0.00,,,0.00,Wunderground v.1.15,2013-04-07 23:38:00,
2013-04-07 19:40:00,69.2,54.7,29.93,SW,217,11.0,11.0,60,0.00,,,0.00,Wunderground v.1.15,2013-04-07 23:40:00,
2013-04-07 19:44:00,69.1,54.6,29.93,SW,222,7.0,10.0,60,0.00,,,0.00,Wunderground v.1.15,2013-04-07 23:44:00,
2013-04-07 19:45:00,69.1,54.6,29.92,SW,232,5.0,10.0,60,0.00,,,0.00,Wunderground v.1.15,2013-04-07 23:45:00,
2013-04-07 19:49:00,69.0,54.5,29.93,South,186,4.0,15.0,60,0.00,,,0.00,Wunderground v.1.15,2013-04-07 23:49:00,
2013-04-07 19:50:00,69.0,54.5,29.93,South,187,3.0,15.0,60,0.00,,,0.00,Wunderground v.1.15,2013-04-07 23:50:00,
2013-04-07 19:55:00,68.8,54.3,29.93,South,191,7.0,9.0,60,0.00,,,0.00,Wunderground v.1.15,2013-04-07 23:55:00,
2013-04-07 20:00:00,68.6,54.2,29.93,WSW,255,2.0,11.0,60,0.00,,,0.00,Wunderground v.1.15,2013-04-08 00:00:00,
2013-04-07 20:01:00,68.6,54.2,29.93,SSW,205,7.0,9.0,60,0.00,,,0.00,Wunderground v.1.15,2013-04-08 00:01:00,
2013-04-07 20:05:00,68.4,54.0,29.93,SW,225,3.0,13.0,60,0.00,,,0.00,Wunderground v.1.15,2013-04-08 00:05:00,
2013-04-07 20:07:00,68.4,54.0,29.92,WSW,242,0.0,13.0,60,0.00,,,0.00,Wunderground v.1.15,2013-04-08 00:07:00,
2013-04-07 20:10:00,68.2,53.8,29.92,SW,223,0.0,4.0,60,0.00,,,0.00,Wunderground v.1.15,2013-04-08 00:10:00,
2013-04-07 20:11:00,68.2,53.8,29.92,SW,222,0.0,4.0,60,0.00,,,0.00,Wunderground v.1.15,2013-04-08 00:11:00,
2013-04-07 20:12:00,68.1,53.7,29.92,West,263,3.0,5.0,60,0.00,,,0.00,Wunderground v.1.15,2013-04-08 00:12:00,
2013-04-07 20:15:00,67.9,54.0,29.92,SSW,211,4.0,6.0,61,0.00,,,0.00,Wunderground v.1.15,2013-04-08 00:15:00,
2013-04-07 20:16:00,68.0,54.0,29.92,SSW,211,1.0,6.0,61,0.00,,,0.00,Wunderground v.1.15,2013-04-08 00:16:00,
2013-04-07 20:17:00,67.9,54.0,29.92,SSW,213,5.0,6.0,61,0.00,,,0.00,Wunderground v.1.15,2013-04-08 00:17:00,
2013-04-07 20:21:00,67.7,53.8,29.93,SW,217,0.0,2.0,61,0.00,,,0.00,Wunderground v.1.15,2013-04-08 00:21:00,
2013-04-07 20:22:00,67.7,53.8,29.93,SW,215,4.0,5.0,61,0.00,,,0.00,Wunderground v.1.15,2013-04-08 00:22:00,
2013-04-07 20:26:00,67.5,53.6,29.93,South,186,3.0,9.0,61,0.00,,,0.00,Wunderground v.1.15,2013-04-08 00:26:00,
2013-04-07 20:27:00,67.4,53.5,29.93,South,186,1.0,9.0,61,0.00,,,0.00,Wunderground v.1.15,2013-04-08 00:27:00,
2013-04-07 20:28:00,67.4,53.5,29.93,South,187,0.0,9.0,61,0.00,,,0.00,Wunderground v.1.15,2013-04-08 00:28:00,
2013-04-07 20:32:00,67.2,53.3,29.93,SSW,200,4.0,5.0,61,0.00,,,0.00,Wunderground v.1.15,2013-04-08 00:32:00,
2013-04-07 20:33:00,67.2,53.3,29.93,SSW,209,3.0,5.0,61,0.00,,,0.00,Wunderground v.1.15,2013-04-08 00:33:00,
2013-04-07 20:37:00,67.0,53.1,29.93,SSW,209,0.0,5.0,61,0.00,,,0.00,Wunderground v.1.15,2013-04-08 00:37:00,
2013-04-07 20:38:00,67.0,53.1,29.93,South,180,4.0,5.0,61,0.00,,,0.00,Wunderground v.1.15,2013-04-08 00:38:00,
2013-04-07 20:39:00,67.0,53.5,29.93,South,180,0.0,5.0,62,0.00,,,0.00,Wunderground v.1.15,2013-04-08 00:39:00,
2013-04-07 20:43:00,66.8,53.4,29.93,South,180,0.0,2.0,62,0.00,,,0.00,Wunderground v.1.15,2013-04-08 00:43:00,
2013-04-07 20:44:00,66.7,53.3,29.93,South,180,0.0,4.0,62,0.00,,,0.00,Wunderground v.1.15,2013-04-08 00:44:00,
2013-04-07 20:48:00,66.4,53.4,29.93,South,180,0.0,4.0,63,0.00,,,0.00,Wunderground v.1.15,2013-04-08 00:48:00,
2013-04-07 20:49:00,66.3,53.3,29.93,South,180,1.0,4.0,63,0.00,,,0.00,Wunderground v.1.15,2013-04-08 00:49:00,
2013-04-07 20:50:00,66.3,53.3,29.93,South,180,3.0,4.0,63,0.00,,,0.00,Wunderground v.1.15,2013-04-08 00:50:00,
2013-04-07 20:53:00,65.9,52.9,29.93,South,180,1.0,3.0,63,0.00,,,0.00,Wunderground v.1.15,2013-04-08 00:53:00,
2013-04-07 20:55:00,65.8,53.3,29.93,South,180,1.0,3.0,64,0.00,,,0.00,Wunderground v.1.15,2013-04-08 00:55:00,
2013-04-07 20:58:00,65.4,52.9,29.93,South,180,0.0,3.0,64,0.00,,,0.00,Wunderground v.1.15,2013-04-08 00:58:00,
2013-04-07 21:00:00,65.2,52.7,29.93,South,180,0.0,3.0,64,0.00,,,0.00,Wunderground v.1.15,2013-04-08 01:00:00,
2013-04-07 21:02:00,65.0,52.9,29.93,South,180,0.0,1.0,65,0.00,,,0.00,Wunderground v.1.15,2013-04-08 01:02:00,
2013-04-07 21:03:00,64.9,52.8,29.93,South,180,0.0,1.0,65,0.00,,,0.00,Wunderground v.1.15,2013-04-08 01:03:00,
2013-04-07 21:05:00,64.7,52.7,29.93,South,180,0.0,1.0,65,0.00,,,0.00,Wunderground v.1.15,2013-04-08 01:05:00,
2013-04-07 21:07:00,64.5,52.9,29.93,South,180,0.0,1.0,66,0.00,,,0.00,Wunderground v.1.15,2013-04-08 01:07:00,
2013-04-07 21:08:00,64.4,52.8,29.93,South,180,0.0,1.0,66,0.00,,,0.00,Wunderground v.1.15,2013-04-08 01:08:00,
2013-04-07 21:11:00,64.1,52.5,29.94,South,180,0.0,1.0,66,0.00,,,0.00,Wunderground v.1.15,2013-04-08 01:11:00,
2013-04-07 21:12:00,64.1,52.5,29.93,South,180,0.0,1.0,66,0.00,,,0.00,Wunderground v.1.15,2013-04-08 01:12:00,
2013-04-07 21:13:00,64.0,52.8,29.93,South,180,0.0,1.0,67,0.00,,,0.00,Wunderground v.1.15,2013-04-08 01:13:00,
2013-04-07 21:17:00,63.7,52.5,29.93,South,180,1.0,1.0,67,0.00,,,0.00,Wunderground v.1.15,2013-04-08 01:17:00,
2013-04-07 21:19:00,63.4,52.7,29.93,South,180,0.0,2.0,68,0.00,,,0.00,Wunderground v.1.15,2013-04-08 01:19:00,
2013-04-07 21:22:00,63.1,52.4,29.94,South,180,1.0,3.0,68,0.00,,,0.00,Wunderground v.1.15,2013-04-08 01:22:00,
2013-04-07 21:25:00,62.9,52.6,29.93,South,180,2.0,3.0,69,0.00,,,0.00,Wunderground v.1.15,2013-04-08 01:25:00,
2013-04-07 21:27:00,62.6,52.3,29.93,South,180,0.0,3.0,69,0.00,,,0.00,Wunderground v.1.15,2013-04-08 01:27:00,
2013-04-07 21:31:00,62.2,52.3,29.94,South,180,0.0,1.0,70,0.00,,,0.00,Wunderground v.1.15,2013-04-08 01:31:00,
2013-04-07 21:32:00,62.0,52.1,29.94,South,180,0.0,1.0,70,0.00,,,0.00,Wunderground v.1.15,2013-04-08 01:32:00,
2013-04-07 21:33:00,62.0,52.1,29.93,South,180,0.0,1.0,70,0.00,,,0.00,Wunderground v.1.15,2013-04-08 01:33:00,
2013-04-07 21:36:00,61.7,52.2,29.94,South,180,0.0,1.0,71,0.00,,,0.00,Wunderground v.1.15,2013-04-08 01:36:00,
2013-04-07 21:37:00,61.6,52.1,29.94,South,180,0.0,2.0,71,0.00,,,0.00,Wunderground v.1.15,2013-04-08 01:37:00,
2013-04-07 21:38:00,61.6,52.1,29.94,South,180,0.0,2.0,71,0.00,,,0.00,Wunderground v.1.15,2013-04-08 01:38:00,
2013-04-07 21:43:00,61.3,52.2,29.94,South,180,1.0,3.0,72,0.00,,,0.00,Wunderground v.1.15,2013-04-08 01:43:00,
2013-04-07 21:44:00,61.2,52.1,29.94,South,180,3.0,3.0,72,0.00,,,0.00,Wunderground v.1.15,2013-04-08 01:44:00,
2013-04-07 21:48:00,61.1,52.0,29.94,South,180,1.0,4.0,72,0.00,,,0.00,Wunderground v.1.15,2013-04-08 01:48:00,
2013-04-07 21:49:00,61.0,51.9,29.94,South,180,2.0,4.0,72,0.00,,,0.00,Wunderground v.1.15,2013-04-08 01:49:00,
2013-04-07 21:53:00,60.8,51.7,29.95,South,176,1.0,4.0,72,0.00,,,0.00,Wunderground v.1.15,2013-04-08 01:53:00,
2013-04-07 21:54:00,60.8,51.7,29.95,South,176,0.0,4.0,72,0.00,,,0.00,Wunderground v.1.15,2013-04-08 01:54:00,
2013-04-07 21:55:00,60.8,51.7,29.95,South,174,0.0,4.0,72,0.00,,,0.00,Wunderground v.1.15,2013-04-08 01:55:00,
2013-04-07 21:58:00,60.9,51.4,29.95,South,175,3.0,4.0,71,0.00,,,0.00,Wunderground v.1.15,2013-04-08 01:58:00,
2013-04-07 21:59:00,60.9,51.4,29.95,South,176,3.0,4.0,71,0.00,,,0.00,Wunderground v.1.15,2013-04-08 01:59:00,
2013-04-07 22:00:00,61.0,51.9,29.95,South,177,0.0,1.0,72,0.00,,,0.00,Wunderground v.1.15,2013-04-08 02:00:00,
2013-04-07 22:03:00,61.0,51.5,29.95,South,182,4.0,5.0,71,0.00,,,0.00,Wunderground v.1.15,2013-04-08 02:03:00,
2013-04-07 22:04:00,61.0,51.5,29.95,South,183,3.0,5.0,71,0.00,,,0.00,Wunderground v.1.15,2013-04-08 02:04:00,
2013-04-07 22:05:00,61.1,51.6,29.95,South,184,5.0,5.0,71,0.00,,,0.00,Wunderground v.1.15,2013-04-08 02:05:00,
2013-04-07 22:09:00,61.2,51.3,29.95,South,183,4.0,5.0,70,0.00,,,0.00,Wunderground v.1.15,2013-04-08 02:09:00,
2013-04-07 22:10:00,61.2,51.3,29.95,South,183,2.0,3.0,70,0.00,,,0.00,Wunderground v.1.15,2013-04-08 02:10:00,
2013-04-07 22:14:00,61.3,51.4,29.95,South,183,3.0,5.0,70,0.00,,,0.00,Wunderground v.1.15,2013-04-08 02:14:00,
2013-04-07 22:15:00,61.3,51.0,29.95,South,183,0.0,5.0,69,0.00,,,0.00,Wunderground v.1.15,2013-04-08 02:15:00,
2013-04-07 22:19:00,61.3,51.0,29.95,South,183,2.0,5.0,69,0.00,,,0.00,Wunderground v.1.15,2013-04-08 02:19:00,
2013-04-07 22:20:00,61.3,51.0,29.95,South,183,4.0,4.0,69,0.00,,,0.00,Wunderground v.1.15,2013-04-08 02:20:00,
2013-04-07 22:21:00,61.3,51.0,29.95,South,182,3.0,4.0,69,0.00,,,0.00,Wunderground v.1.15,2013-04-08 02:21:00,
2013-04-07 22:24:00,61.3,51.0,29.95,South,182,1.0,4.0,69,0.00,,,0.00,Wunderground v.1.15,2013-04-08 02:24:00,
2013-04-07 22:25:00,61.3,51.0,29.95,South,183,0.0,4.0,69,0.00,,,0.00,Wunderground v.1.15,2013-04-08 02:25:00,
2013-04-07 22:26:00,61.3,51.0,29.95,South,182,2.0,4.0,69,0.00,,,0.00,Wunderground v.1.15,2013-04-08 02:26:00,
2013-04-07 22:27:00,61.3,51.0,29.95,South,183,0.0,4.0,69,0.00,,,0.00,Wunderground v.1.15,2013-04-08 02:27:00,
2013-04-07 22:29:00,61.3,51.0,29.95,South,183,0.0,4.0,69,0.00,,,0.00,Wunderground v.1.15,2013-04-08 02:29:00,
2013-04-07 22:31:00,61.2,50.9,29.95,South,182,0.0,1.0,69,0.00,,,0.00,Wunderground v.1.15,2013-04-08 02:31:00,
2013-04-07 22:32:00,61.2,50.9,29.95,South,182,0.0,1.0,69,0.00,,,0.00,Wunderground v.1.15,2013-04-08 02:32:00,
2013-04-07 22:34:00,61.2,50.9,29.95,South,183,1.0,1.0,69,0.00,,,0.00,Wunderground v.1.15,2013-04-08 02:34:00,
2013-04-07 22:36:00,61.1,50.8,29.95,South,183,0.0,2.0,69,0.00,,,0.00,Wunderground v.1.15,2013-04-08 02:36:00,
2013-04-07 22:37:00,61.1,50.8,29.95,South,182,0.0,2.0,69,0.00,,,0.00,Wunderground v.1.15,2013-04-08 02:37:00,
2013-04-07 22:38:00,61.1,50.8,29.95,South,183,0.0,2.0,69,0.00,,,0.00,Wunderground v.1.15,2013-04-08 02:38:00,
2013-04-07 22:40:00,61.1,50.8,29.95,South,183,0.0,2.0,69,0.00,,,0.00,Wunderground v.1.15,2013-04-08 02:40:00,
2013-04-07 22:44:00,60.9,50.3,29.95,South,190,0.0,4.0,68,0.00,,,0.00,Wunderground v.1.15,2013-04-08 02:44:00,
2013-04-07 22:45:00,60.9,50.3,29.95,South,191,2.0,4.0,68,0.00,,,0.00,Wunderground v.1.15,2013-04-08 02:45:00,
2013-04-07 22:49:00,60.8,50.2,29.96,South,191,0.0,4.0,68,0.00,,,0.00,Wunderground v.1.15,2013-04-08 02:49:00,
2013-04-07 22:50:00,60.8,49.8,29.95,South,189,6.0,6.0,67,0.00,,,0.00,Wunderground v.1.15,2013-04-08 02:50:00,
2013-04-07 22:55:00,60.9,49.9,29.95,South,182,3.0,6.0,67,0.00,,,0.00,Wunderground v.1.15,2013-04-08 02:55:00,
2013-04-07 23:02:00,61.0,49.6,29.96,South,178,4.0,4.0,66,0.00,,,0.00,Wunderground v.1.15,2013-04-08 03:02:00,
2013-04-07 23:07:00,61.2,49.7,29.96,South,188,2.0,5.0,66,0.00,,,0.00,Wunderground v.1.15,2013-04-08 03:07:00,
2013-04-07 23:08:00,61.2,49.7,29.96,South,188,1.0,5.0,66,0.00,,,0.00,Wunderground v.1.15,2013-04-08 03:08:00,
2013-04-07 23:13:00,61.2,49.7,29.96,South,186,0.0,3.0,66,0.00,,,0.00,Wunderground v.1.15,2013-04-08 03:13:00,
2013-04-07 23:18:00,61.0,49.1,29.96,South,188,0.0,4.0,65,0.00,,,0.00,Wunderground v.1.15,2013-04-08 03:18:00,
2013-04-07 23:22:00,61.0,48.7,29.96,SW,217,1.0,3.0,64,0.00,,,0.00,Wunderground v.1.15,2013-04-08 03:22:00,
2013-04-07 23:23:00,61.0,49.1,29.96,SW,217,0.0,3.0,65,0.00,,,0.00,Wunderground v.1.15,2013-04-08 03:23:00,
2013-04-07 23:27:00,60.9,48.6,29.96,SSW,211,0.0,4.0,64,0.00,,,0.00,Wunderground v.1.15,2013-04-08 03:27:00,
2013-04-07 23:29:00,60.9,48.6,29.96,SSW,211,0.0,4.0,64,0.00,,,0.00,Wunderground v.1.15,2013-04-08 03:29:00,
2013-04-07 23:32:00,60.9,48.6,29.96,SSW,205,0.0,2.0,64,0.00,,,0.00,Wunderground v.1.15,2013-04-08 03:32:00,
2013-04-07 23:35:00,60.8,48.5,29.96,SSW,209,1.0,4.0,64,0.00,,,0.00,Wunderground v.1.15,2013-04-08 03:35:00,
2013-04-07 23:38:00,60.8,48.5,29.96,SSW,209,1.0,4.0,64,0.00,,,0.00,Wunderground v.1.15,2013-04-08 03:38:00,
2013-04-07 23:40:00,60.8,48.5,29.96,SSW,209,2.0,4.0,64,0.00,,,0.00,Wunderground v.1.15,2013-04-08 03:40:00,
2013-04-07 23:43:00,60.7,48.4,29.96,SSW,200,2.0,5.0,64,0.00,,,0.00,Wunderground v.1.15,2013-04-08 03:43:00,
2013-04-07 23:45:00,60.7,48.4,29.96,SSW,200,2.0,5.0,64,0.00,,,0.00,Wunderground v.1.15,2013-04-08 03:45:00,
2013-04-07 23:46:00,60.7,48.4,29.96,SW,221,0.0,5.0,64,0.00,,,0.00,Wunderground v.1.15,2013-04-08 03:46:00,
2013-04-07 23:48:00,60.6,48.4,29.96,SW,222,3.0,5.0,64,0.00,,,0.00,Wunderground v.1.15,2013-04-08 03:48:00,
2013-04-07 23:50:00,60.6,48.4,29.96,SW,222,0.0,6.0,64,0.00,,,0.00,Wunderground v.1.15,2013-04-08 03:50:00,
2013-04-07 23:52:00,60.6,48.4,29.96,SW,222,0.0,2.0,64,0.00,,,0.00,Wunderground v.1.15,2013-04-08 03:52:00,
2013-04-07 23:53:00,60.6,48.4,29.96,SW,222,0.0,3.0,64,0.00,,,0.00,Wunderground v.1.15,2013-04-08 03:53:00,
2013-04-07 23:56:00,60.5,48.7,29.96,SW,221,0.0,3.0,65,0.00,,,0.00,Wunderground v.1.15,2013-04-08 03:56:00,
2013-04-07 23:57:00,60.4,48.6,29.96,South,175,4.0,7.0,65,0.00,,,0.00,Wunderground v.1.15,2013-04-08 03:57:00,
2013-04-07 23:58:00,60.4,48.2,29.96,South,174,0.0,7.0,64,0.00,,,0.00,Wunderground v.1.15,2013-04-08 03:58:00,